GFSWCAN_925_thetae_279.txt.gz
Theta_e
313 313 312 310 308 306 306 305 304 304 303 302 301 301 301 300 298 297 302 307 310 311 309 306 305 304 302 304 310 302 303 301 300 303 305 306 307 306 305 303 303 306 307 307 303 306 311 299 300 307 307 302 302 300
313 314 313 310 308 307 306 305 305 304 303 302 301 302 301 300 298 297 302 306 308 308 307 308 307 305 304 304 303 297 305 302 301 303 301 303 308 302 306 310 298 306 308 309 309 309 305 298 303 301 299 301 302 301
308 314 313 311 309 308 307 306 305 304 303 301 301 302 301 300 298 297 302 305 306 306 308 307 308 308 309 305 303 304 298 299 301 299 301 299 308 302 306 305 303 300 299 304 304 306 304 302 302 299 298 299 299 298
308 309 314 312 310 308 307 306 305 304 303 301 301 301 301 300 298 295 300 303 305 305 306 304 303 304 306 308 307 304 302 302 301 302 303 302 305 304 307 306 304 302 300 301 302 303 304 305 302 302 302 300 298 296
306 308 314 312 310 309 308 307 305 304 303 302 302 301 301 300 298 295 296 301 303 302 303 302 302 302 301 301 302 301 301 302 304 303 299 306 301 304 301 301 303 299 302 303 306 305 306 306 304 302 302 302 301 299
306 307 308 312 310 309 308 307 306 304 303 302 300 299 299 300 297 294 294 294 300 301 299 298 298 298 296 297 297 297 299 301 303 303 303 301 299 303 302 305 307 302 301 301 308 302 302 301 300 300 302 302 301 299
305 305 308 311 310 309 308 307 305 304 303 301 300 299 298 298 296 293 295 296 295 301 300 297 296 296 295 295 294 294 296 299 303 304 305 305 304 303 297 312 308 307 304 303 302 302 307 306 306 304 300 301 300 299
304 305 308 312 310 309 308 306 305 304 302 300 299 298 298 296 295 294 297 298 298 299 298 293 294 298 294 293 295 292 294 297 301 303 302 304 302 303 309 309 310 309 308 308 309 306 307 308 308 307 300 298 299 300
304 305 305 305 309 309 307 306 305 303 300 299 297 297 296 294 292 293 297 297 297 298 299 300 300 300 292 290 291 292 292 298 295 298 301 302 300 306 307 305 307 307 308 310 309 309 308 308 309 308 305 301 298 302
303 304 304 304 306 308 307 306 304 300 299 297 295 292 293 292 296 297 298 296 294 292 297 299 298 299 293 291 289 292 293 293 293 296 298 302 303 300 298 296 296 296 298 301 303 305 306 306 306 306 304 303 301 302
302 304 303 304 305 308 307 304 301 298 296 294 292 293 293 297 297 295 294 292 288 296 296 297 298 299 293 296 294 291 292 295 303 303 302 301 300 299 297 296 295 294 294 294 294 296 297 299 301 303 304 303 299 298
301 303 303 303 304 307 305 301 298 295 294 292 294 295 297 295 295 295 294 288 288 294 296 299 299 298 292 291 294 298 302 301 305 298 302 302 299 297 296 296 296 295 295 294 294 293 294 294 295 296 298 301 302 299
302 301 302 303 306 305 302 298 296 294 294 294 294 293 294 292 295 296 294 294 293 293 295 299 299 295 292 291 298 300 302 304 301 303 304 299 297 297 296 295 295 295 294 294 294 293 293 293 293 294 295 297 300 301
302 301 302 301 305 302 299 296 294 293 293 291 292 291 293 293 294 294 294 295 296 296 299 299 297 296 296 300 302 304 303 303 304 305 305 299 297 296 295 294 294 296 296 296 295 294 293 293 293 293 294 295 297 298
299 299 299 300 304 299 295 294 293 294 289 288 290 295 291 290 289 291 292 298 298 298 299 298 299 299 300 302 301 302 303 305 303 303 298 297 296 294 294 295 295 296 297 296 296 296 295 294 293 292 292 292 294 295
298 299 303 305 300 295 294 293 293 291 287 286 285 287 288 291 292 293 297 299 298 299 298 297 299 299 300 300 302 304 304 303 299 297 297 299 297 295 294 294 295 296 297 298 298 298 297 295 293 291 291 291 291 291
296 294 306 301 296 294 293 292 290 287 289 286 284 286 290 292 293 296 299 299 298 300 298 297 300 301 297 301 300 297 299 298 298 297 300 298 296 295 293 293 294 297 298 299 299 299 299 298 294 292 291 290 289 289
295 302 297 294 292 292 292 288 286 285 281 276 287 287 288 290 292 292 293 292 296 295 292 296 292 294 297 297 298 296 298 300 297 296 297 295 293 293 293 292 293 295 297 298 298 299 299 298 296 293 291 290 289 289
297 292 291 292 294 292 290 288 285 283 276 281 284 287 289 288 288 290 292 289 288 291 291 286 292 295 296 293 295 298 298 298 298 297 297 293 293 292 293 294 294 294 295 296 297 298 299 298 297 294 291 290 289 288
293 292 293 295 295 288 286 285 282 281 281 283 285 288 288 289 288 290 291 290 291 292 292 285 290 291 292 292 292 295 296 297 298 297 295 291 291 291 292 293 292 294 294 295 296 298 298 298 298 296 293 291 289 288
293 295 294 292 288 286 283 280 281 280 283 286 287 289 287 286 286 291 292 289 292 293 291 289 286 288 287 289 292 293 293 293 296 293 290 290 290 292 292 293 293 293 293 294 294 296 297 298 298 297 294 293 291 289
294 292 290 289 287 286 284 280 282 280 285 285 288 289 289 286 287 287 287 292 292 295 288 288 287 288 287 287 288 293 295 294 294 292 293 292 291 290 290 291 291 292 293 294 295 295 296 297 296 297 296 294 293 291
291 292 287 287 287 286 285 283 286 285 288 288 290 289 288 287 286 286 288 288 288 287 287 288 288 288 288 289 289 289 290 289 287 287 289 289 290 291 291 292 293 292 292 295 295 295 295 295 295 296 295 295 293 291
293 286 286 286 286 286 285 283 283 285 287 286 289 286 283 284 288 289 290 290 289 287 287 287 287 286 285 285 286 287 288 288 288 289 290 290 289 290 293 294 295 295 294 293 294 295 294 293 294 294 294 293 293 291
291 287 286 284 283 284 284 285 284 286 287 286 286 283 282 283 285 286 287 288 288 289 289 287 287 288 288 288 287 287 289 289 288 288 290 291 291 292 293 293 292 292 291 291 292 292 292 292 292 293 294 293 293 292
289 284 286 283 282 285 286 286 286 287 285 285 286 283 282 283 281 284 286 287 286 287 289 289 289 288 287 287 288 287 289 290 290 289 292 294 294 292 288 288 287 288 288 289 291 290 290 291 290 290 291 292 293 293
288 283 278 274 282 285 286 287 287 288 287 286 283 283 286 286 285 287 286 286 287 286 288 288 288 288 288 287 289 291 292 292 292 293 296 294 294 295 292 287 285 287 287 287 287 288 289 290 289 289 289 289 291 292
280 280 285 282 285 286 287 287 288 288 287 285 286 286 287 287 288 287 286 287 288 289 289 289 289 289 289 289 290 291 291 292 293 291 287 287 287 287 287 287 287 288 288 287 287 287 288 289 288 288 289 289 291 293
280 279 284 283 284 286 287 288 288 288 286 286 288 287 286 286 286 285 285 287 288 288 287 287 288 289 289 290 290 291 291 289 284 284 284 284 283 286 287 287 287 287 287 287 287 287 287 287 288 288 289 290 292 293
277 276 281 281 284 285 284 285 287 286 285 286 286 284 284 283 284 286 286 287 286 286 288 289 290 288 286 285 285 286 287 287 287 285 285 284 285 288 288 287 287 287 286 286 287 287 287 287 287 287 287 288 289 288
279 279 279 280 282 282 283 285 285 284 284 284 282 284 285 283 284 286 287 287 288 288 288 287 287 288 287 286 286 287 286 288 287 287 287 288 288 288 288 288 287 287 286 286 287 287 286 286 286 286 286 287 287 287
278 281 282 280 279 280 283 286 286 286 284 283 282 280 283 283 284 283 288 287 285 285 287 288 287 288 289 289 290 289 291 291 291 291 291 289 289 289 288 287 287 287 286 287 287 286 286 286 286 286 286 286 287 287
279 282 282 281 280 282 284 285 285 284 280 279 280 282 284 285 286 285 287 288 288 288 288 288 289 289 289 289 289 289 290 290 290 290 290 289 289 288 287 287 287 286 286 286 286 286 286 286 286 286 286 286 286 287

GFSWCAN_925_thetae_285.txt.gz
Theta_e
312 312 314 316 316 316 315 313 310 308 306 305 304 303 303 302 300 301 302 308 312 316 315 313 314 315 316 316 319 311 310 309 310 320 321 320 320 319 318 317 315 316 320 318 319 325 319 310 307 313 315 312 310 310
309 315 313 313 315 315 316 314 311 308 306 305 304 303 303 303 302 301 301 304 308 311 314 311 312 310 308 308 314 312 316 314 314 316 318 318 319 318 319 319 315 317 318 322 320 319 315 310 312 311 308 309 311 310
307 308 312 313 314 314 314 314 311 309 307 305 304 303 302 303 302 301 301 304 306 309 310 311 313 312 311 308 306 314 312 310 309 310 316 321 322 318 319 318 317 314 314 316 318 317 316 315 312 310 310 309 310 310
308 309 311 311 310 310 313 314 312 309 307 306 304 303 303 302 301 301 300 303 306 308 309 309 306 310 308 308 307 305 306 305 308 311 318 319 319 313 316 316 316 316 313 314 315 315 315 314 313 312 311 310 309 309
308 306 308 308 307 309 315 315 312 309 308 306 305 303 302 301 301 301 299 301 305 307 310 309 305 305 303 304 307 307 306 308 309 313 315 316 312 313 312 312 314 313 314 314 315 315 314 314 313 310 311 311 311 311
306 306 307 305 305 307 309 315 312 310 308 307 305 303 302 302 301 298 296 296 301 303 307 308 303 302 299 300 304 306 308 310 312 315 316 314 310 312 319 317 315 314 313 312 314 313 314 312 311 311 312 313 312 311
307 307 306 306 306 306 307 307 312 310 308 307 305 303 302 301 298 296 297 298 296 302 305 307 305 301 299 301 301 303 302 306 309 312 311 311 308 311 317 318 315 314 313 312 312 312 312 312 313 313 314 314 314 314
307 307 306 306 306 307 306 306 310 310 309 307 304 303 301 297 295 295 296 295 298 302 304 305 305 303 298 303 302 299 304 305 306 309 306 310 312 310 314 312 312 313 313 313 314 313 313 313 313 313 313 312 313 313
306 307 306 306 305 305 305 306 307 311 309 306 303 298 295 295 295 296 296 298 299 300 301 302 305 306 299 300 301 299 302 306 303 306 307 309 311 312 312 312 311 312 313 313 312 308 308 308 309 309 308 308 308 309
306 307 306 305 304 305 305 305 308 310 306 299 296 293 294 294 296 295 295 298 298 298 301 301 302 305 301 302 304 304 303 309 309 307 306 309 311 310 310 310 311 310 307 306 306 308 309 307 304 303 302 302 301 302
305 305 305 304 304 305 305 304 307 304 298 296 292 295 294 296 294 295 296 297 299 300 300 300 301 303 299 304 304 303 305 306 307 308 308 308 307 307 307 309 309 305 304 304 303 302 301 301 301 301 300 300 300 300
303 304 303 303 304 304 303 304 301 300 297 294 293 292 292 294 294 295 297 298 299 299 300 301 301 302 300 300 304 302 306 304 307 305 305 305 305 306 305 305 306 304 303 302 301 302 302 302 301 300 300 299 299 298
303 303 302 301 302 302 304 303 301 296 294 294 294 294 296 295 295 297 296 298 299 298 300 301 301 299 297 300 303 304 306 305 305 305 305 307 308 304 304 304 303 303 303 303 304 304 303 303 303 303 301 299 298 297
303 303 302 301 302 303 302 299 296 296 295 295 297 296 298 297 299 298 299 299 298 298 300 301 300 303 301 303 303 305 305 304 305 305 306 306 306 304 304 303 303 304 304 304 304 304 304 304 304 303 303 303 300 298
302 303 301 301 301 303 300 296 297 297 293 297 297 299 298 300 299 300 299 299 297 299 301 302 302 302 304 304 305 307 305 306 305 306 306 307 305 305 304 303 304 304 304 304 303 303 303 303 303 302 302 301 300 299
300 301 302 301 301 302 298 297 295 292 290 295 297 300 299 299 298 299 299 299 299 301 301 303 303 304 304 306 304 305 305 305 307 305 306 305 305 304 303 304 304 303 301 300 300 300 301 301 302 302 301 301 300 298
301 301 300 300 301 299 296 293 291 291 292 292 294 293 298 299 297 298 299 299 300 301 303 303 304 304 305 305 304 304 305 306 306 305 305 304 304 303 304 301 298 298 298 298 298 298 298 299 300 301 302 301 299 297
300 300 299 299 301 296 291 290 290 292 293 290 292 293 296 296 297 299 299 300 301 302 302 304 303 304 304 304 304 306 304 305 305 305 304 303 303 302 299 298 297 297 297 297 297 297 297 298 299 300 301 301 298 297
299 299 299 300 296 293 293 289 290 290 288 289 291 293 294 296 297 299 300 300 300 299 299 301 304 305 304 305 305 305 306 305 305 304 304 302 299 296 295 295 295 296 297 297 297 297 298 298 299 300 301 301 299 298
298 298 300 299 295 291 290 287 286 290 290 290 291 293 295 296 298 299 300 299 298 299 300 300 302 302 302 303 303 305 306 304 304 304 302 299 297 297 295 294 296 297 297 297 298 298 299 300 300 301 300 299 299 298
293 296 299 295 288 286 287 288 288 290 290 292 292 292 292 295 297 298 298 296 297 300 301 301 299 297 296 297 299 303 303 303 303 304 304 302 301 299 294 294 296 297 297 298 299 300 300 300 300 299 298 298 298 298
290 297 294 290 288 287 287 287 289 289 291 291 292 293 295 296 296 297 294 296 298 300 301 297 297 297 295 295 297 300 301 302 302 300 297 298 296 294 294 295 296 297 298 299 299 299 298 298 298 296 297 297 297 297
292 290 289 289 290 290 288 286 290 291 291 292 292 292 293 295 296 294 298 298 299 299 299 296 296 295 296 295 294 296 297 300 301 300 298 296 295 294 293 293 294 296 298 299 298 296 296 295 295 293 294 294 294 295
291 288 289 289 290 289 288 288 290 291 292 293 293 291 291 292 292 295 298 297 296 298 296 297 296 296 295 294 294 294 295 297 299 298 298 297 295 294 293 292 294 296 298 298 296 294 294 293 292 293 293 292 292 292
294 289 290 288 288 288 289 289 290 292 291 292 291 290 290 290 292 293 292 292 292 294 297 297 296 297 298 298 297 296 296 293 295 296 295 294 294 293 292 293 294 296 298 296 294 293 292 291 291 291 291 291 290 290
291 286 290 290 289 290 290 290 291 291 291 291 291 289 289 291 292 293 293 292 292 293 294 295 296 296 297 297 297 297 295 294 293 294 294 293 292 292 293 294 296 297 295 293 292 291 291 290 290 290 290 290 289 289
290 288 285 282 288 290 290 290 290 292 292 291 289 289 290 293 294 293 292 291 292 293 294 294 294 295 295 295 294 294 292 291 290 291 291 292 292 292 293 294 297 297 293 290 289 290 289 289 289 289 289 290 289 289
287 286 287 286 288 289 291 292 292 294 293 291 289 291 293 295 297 295 293 291 291 291 291 293 293 293 293 294 292 291 291 291 291 291 291 292 292 293 293 294 296 293 290 288 287 288 288 289 289 289 289 289 289 289
288 287 289 289 290 292 293 293 294 294 290 290 294 294 294 293 292 291 290 289 289 291 291 291 291 292 291 291 291 291 291 291 291 291 292 293 292 292 293 294 294 293 292 288 287 287 287 287 288 288 288 289 289 289
288 286 290 289 292 295 294 293 294 292 290 291 290 290 290 290 290 288 288 289 290 291 292 291 291 290 291 291 291 290 290 291 292 293 294 294 294 294 291 292 292 292 288 287 287 287 287 287 287 288 288 288 288 288
285 286 288 289 290 288 287 288 288 288 288 289 288 289 290 289 289 288 288 288 289 290 290 291 290 290 291 291 292 291 291 290 291 292 294 294 294 294 291 290 290 289 288 287 287 287 287 287 287 288 288 288 287 287
286 287 288 289 289 286 286 288 288 289 288 288 289 287 289 289 291 292 288 287 289 289 290 291 291 292 291 291 291 293 294 294 292 292 292 292 292 291 291 291 290 289 288 287 287 287 286 286 287 287 287 287 287 287
286 286 286 286 287 287 287 288 288 288 287 288 289 288 289 289 291 291 287 288 289 290 290 290 291 291 291 291 291 291 291 292 292 292 293 293 293 292 291 291 291 289 288 287 287 286 286 286 286 287 287 287 287 287

GFSWCAN_925_thetae_291.txt.gz
Theta_e
308 310 311 312 311 310 311 310 315 317 316 314 313 311 309 307 304 300 299 305 311 312 311 313 312 313 313 313 314 308 308 307 305 312 313 315 316 315 314 311 308 309 309 308 306 310 316 309 305 309 309 308 307 307
309 309 311 311 311 312 311 310 312 314 315 315 313 311 310 307 306 302 299 299 310 311 309 311 311 312 312 309 311 303 310 307 307 310 311 312 314 314 315 317 308 312 310 311 311 312 310 304 308 305 305 306 308 307
307 308 309 312 312 313 312 312 311 311 313 315 313 311 310 308 306 303 300 303 306 307 308 308 309 311 312 312 309 307 306 307 308 308 311 311 315 312 315 314 314 311 309 313 312 313 312 309 306 306 304 304 305 307
306 307 308 307 308 309 314 313 312 312 312 313 314 311 310 308 307 304 300 302 303 307 307 305 307 307 310 312 311 308 306 306 306 307 305 306 309 310 312 313 312 311 309 310 310 311 312 311 309 309 307 304 306 306
304 305 307 307 308 308 309 310 311 314 314 315 312 311 310 308 307 304 301 301 303 302 305 307 305 306 308 311 311 310 305 305 306 307 305 309 309 309 307 308 309 309 310 311 314 310 312 310 307 306 306 307 307 307
303 305 305 307 308 308 308 308 308 310 314 313 312 312 311 308 306 302 299 299 302 303 304 306 302 302 304 306 309 308 303 304 305 306 306 308 307 309 306 309 311 311 309 310 313 311 308 308 307 306 307 307 307 310
302 304 306 307 308 307 307 308 311 311 312 313 314 314 311 308 304 301 299 299 300 302 302 302 303 301 300 302 302 305 306 306 309 309 309 308 307 307 300 314 310 309 310 311 311 310 310 309 309 307 308 309 309 309
302 304 305 307 307 306 307 307 307 308 309 309 310 313 311 306 301 297 297 298 299 300 297 302 303 301 299 301 302 301 303 304 304 309 307 310 308 308 311 311 311 311 309 310 311 310 310 310 310 308 307 306 304 302
302 303 305 306 307 306 305 306 306 306 307 308 309 311 303 299 293 294 297 298 298 297 299 300 303 302 297 300 297 300 302 306 303 307 308 310 311 313 311 309 309 309 311 311 311 311 310 309 308 306 303 300 300 299
301 303 304 305 307 306 305 305 305 306 306 306 304 295 293 292 295 297 294 294 294 293 295 301 299 299 298 300 301 300 301 305 307 305 304 308 311 310 309 307 306 307 309 310 310 310 307 305 304 299 300 298 298 298
302 303 304 304 305 306 306 305 305 305 304 298 293 293 292 296 294 294 296 298 298 298 297 300 299 299 298 301 304 301 303 303 309 306 307 306 308 307 307 308 307 305 306 307 308 307 305 303 299 298 298 298 298 298
303 303 304 304 305 306 305 305 305 302 296 293 292 292 292 294 295 296 296 297 299 299 296 299 299 298 298 300 302 301 305 304 307 302 306 306 303 303 304 306 307 307 307 305 302 301 299 298 298 298 298 298 299 299
303 303 303 304 305 305 305 305 301 295 295 294 293 294 294 294 295 296 296 295 296 296 297 298 300 297 297 300 301 302 306 305 302 305 305 302 300 300 300 301 303 302 303 304 300 299 299 300 301 301 301 302 302 302
303 302 303 304 305 305 305 298 297 296 296 294 295 295 295 294 295 296 296 296 296 297 298 300 297 300 299 302 302 304 303 303 305 305 303 299 300 301 299 300 301 301 303 300 300 300 301 301 302 303 303 302 302 301
302 302 303 304 304 303 301 300 298 299 294 295 296 296 295 296 295 296 296 297 298 299 300 301 300 300 302 303 301 298 305 302 301 301 299 299 300 301 300 300 299 300 301 301 301 302 302 302 301 301 302 302 302 301
303 304 304 303 303 301 298 298 297 295 292 295 295 297 296 297 297 297 297 297 298 300 300 300 302 303 304 300 302 304 301 302 298 300 300 300 300 300 299 299 300 301 302 302 302 302 301 301 300 300 301 301 301 301
303 302 302 302 302 300 298 297 294 294 296 294 293 293 297 297 298 297 297 298 299 300 301 301 302 301 298 301 304 298 301 300 300 300 300 300 300 299 299 300 302 302 301 300 300 300 299 299 298 297 296 298 299 300
301 302 302 301 301 297 294 293 294 294 291 287 289 289 291 294 296 297 296 298 300 300 299 300 299 302 302 301 301 297 298 299 299 299 300 299 299 299 301 300 299 299 297 296 296 296 295 295 294 294 295 297 299 299
300 302 301 300 297 294 292 290 291 292 283 289 286 286 289 291 294 296 297 299 298 298 299 300 302 300 300 297 299 299 298 299 300 300 299 299 299 299 296 296 296 295 295 294 294 294 295 295 296 296 297 298 298 298
300 301 301 298 298 291 290 286 287 285 284 286 286 291 289 291 294 296 297 298 298 297 299 300 300 299 299 298 298 299 299 299 299 300 300 297 294 295 295 295 294 294 294 295 295 296 296 297 298 298 299 299 297 296
300 300 295 296 289 289 288 285 287 285 286 287 286 289 289 295 297 298 298 297 297 299 300 297 296 297 295 295 295 297 299 300 299 300 301 295 293 293 293 293 294 294 294 294 295 296 297 296 298 299 298 297 297 297
294 295 291 289 288 286 282 281 282 282 288 290 291 287 289 293 297 298 296 297 299 299 297 296 296 296 293 293 293 296 299 300 299 299 298 296 294 293 292 292 294 294 294 295 296 296 297 298 298 298 296 296 295 294
295 294 290 290 289 288 288 286 284 287 288 289 290 290 287 290 291 295 298 298 296 294 297 296 296 294 294 293 294 296 299 298 297 298 298 296 296 296 293 292 294 294 294 295 296 297 297 297 297 296 294 293 292 291
293 290 290 287 289 287 282 284 287 290 290 291 291 286 285 288 294 295 295 295 294 295 295 295 295 294 293 291 293 294 295 299 296 295 297 297 297 295 293 292 293 294 295 296 297 298 297 296 295 294 292 292 291 290
291 289 289 289 284 283 282 286 286 281 281 281 282 281 284 287 288 290 292 293 295 296 296 296 294 295 296 295 294 292 296 298 298 298 295 295 294 291 291 292 293 294 295 296 296 296 295 294 293 291 290 290 289 289
291 287 286 287 288 285 284 285 286 288 289 289 285 283 284 286 287 289 291 293 293 294 295 295 295 295 296 296 295 292 293 296 298 297 297 295 294 293 292 291 290 290 292 293 296 295 294 293 292 290 289 289 289 290
288 287 284 283 288 287 288 289 289 289 286 285 285 287 286 287 288 291 292 292 292 292 294 296 296 296 296 296 297 297 295 294 295 296 296 297 297 295 294 293 291 292 293 292 294 296 294 293 291 289 288 288 288 289
284 284 287 285 289 291 290 290 290 290 290 288 288 288 290 292 294 294 292 290 290 291 291 293 296 297 297 297 297 296 296 294 294 294 294 294 295 296 295 294 294 293 293 292 293 295 296 295 291 289 288 288 288 288
284 284 286 285 289 290 291 293 293 293 291 290 292 293 292 292 292 290 290 289 289 290 290 290 291 294 295 296 296 296 295 292 291 290 291 292 289 290 292 293 294 293 292 292 293 294 296 294 290 288 288 288 288 288
284 286 289 288 291 293 292 288 293 288 287 287 288 289 289 288 288 290 289 288 288 288 289 290 290 290 290 290 289 289 291 292 294 293 292 292 290 291 291 291 291 291 292 293 295 294 294 290 288 288 287 287 287 288
283 287 289 290 291 288 287 287 288 289 289 290 288 289 290 289 287 288 287 287 288 288 289 289 289 289 289 289 289 288 289 290 290 291 291 291 291 291 291 292 292 292 292 294 293 291 289 288 288 287 287 287 287 287
283 286 287 286 286 285 285 287 287 288 287 287 289 287 288 288 289 288 286 287 287 287 289 289 289 289 290 290 291 291 291 291 291 291 291 291 292 292 292 292 292 292 292 291 290 289 287 288 287 286 286 286 287 287
279 283 284 284 283 284 286 286 286 285 285 286 285 285 286 287 289 286 285 284 285 285 285 286 288 289 290 290 290 290 291 291 292 291 291 291 291 292 293 292 292 292 293 292 290 289 288 287 286 286 286 286 286 287

GFSWCAN_925_thetae_294.txt.gz
Theta_e
312 310 309 311 312 312 312 312 311 312 317 317 316 315 314 312 309 304 299 301 311 313 311 312 312 312 312 312 314 308 309 307 307 313 313 313 315 313 312 310 307 309 308 307 304 310 315 309 305 310 309 307 306 306
307 307 308 308 310 311 312 312 312 312 312 312 316 316 313 312 310 306 300 299 304 310 310 310 311 312 312 309 311 304 311 307 309 311 309 311 313 311 313 314 306 310 310 309 309 311 309 303 308 304 305 305 306 306
306 306 308 309 308 310 312 312 311 311 311 311 315 315 315 312 309 308 303 299 303 307 307 308 308 309 311 312 310 307 304 306 306 306 309 310 313 310 314 312 311 308 307 310 308 309 308 309 305 305 303 305 304 304
306 306 307 309 309 309 311 312 312 311 311 311 312 314 313 312 310 307 303 301 301 305 305 304 304 305 305 310 312 308 306 306 306 307 306 307 311 310 312 311 311 311 308 309 309 309 309 310 309 306 304 303 303 303
304 304 305 306 307 307 308 310 311 313 312 311 311 312 313 312 310 307 302 302 301 302 303 303 304 304 306 307 310 310 306 305 306 307 304 307 307 309 305 306 307 308 308 311 313 309 311 312 309 307 306 305 303 304
303 303 302 303 305 307 308 308 308 308 314 312 312 312 312 313 309 303 298 301 302 302 302 305 303 302 303 306 309 307 307 306 306 307 305 306 306 308 306 309 311 309 308 308 313 308 307 308 304 305 305 305 304 305
302 301 301 302 304 305 307 307 308 308 309 311 312 314 314 311 306 304 300 300 301 301 299 302 302 301 300 302 303 306 304 305 307 308 307 308 308 308 300 314 310 308 310 310 309 309 309 307 309 305 305 306 307 308
300 300 301 303 304 304 307 307 308 308 308 309 312 313 313 310 306 301 301 300 301 297 297 302 302 302 299 301 304 302 304 305 306 308 306 309 308 308 311 311 310 310 309 307 307 309 311 311 307 305 305 306 305 305
300 301 301 302 303 305 307 307 307 309 309 310 311 311 309 300 295 297 299 300 299 297 299 300 303 303 297 298 298 301 303 307 304 309 309 310 311 313 312 309 309 309 309 310 309 310 309 308 309 306 305 304 303 301
301 300 301 302 304 305 307 307 307 307 307 308 307 297 294 294 297 298 297 294 294 293 294 301 299 298 299 300 301 302 301 305 306 305 306 309 311 310 310 306 307 307 307 309 309 310 310 307 306 305 303 300 300 298
300 300 301 302 304 305 306 306 305 306 305 301 293 292 293 296 296 294 295 296 296 298 297 299 299 298 297 303 303 300 303 303 308 307 309 308 307 309 308 308 308 307 306 308 309 309 308 307 304 300 297 297 296 296
300 300 301 303 304 305 306 306 305 305 297 296 293 292 293 294 295 297 298 298 298 298 296 300 298 297 297 300 303 301 305 303 308 304 307 306 306 305 305 306 307 307 308 308 308 305 303 303 300 298 296 296 297 298
300 301 302 303 304 304 306 306 305 299 295 296 294 293 295 295 296 297 297 296 298 295 297 299 300 298 297 300 302 302 305 306 303 305 307 305 300 301 301 301 302 304 305 306 307 305 302 299 298 298 297 298 299 299
300 302 303 303 304 304 306 304 298 297 296 294 295 295 295 294 295 296 295 295 295 296 298 300 297 300 299 302 302 304 304 303 305 306 304 300 299 300 301 299 300 301 301 302 303 301 299 298 298 300 300 301 301 300
299 302 303 303 304 305 303 300 299 299 293 295 295 296 293 292 293 294 294 296 297 298 299 300 300 300 301 303 302 302 304 305 303 302 298 299 299 298 298 298 298 299 299 299 298 299 300 300 300 300 302 302 302 301
300 303 303 303 304 303 299 297 298 295 292 295 295 296 292 294 294 295 296 296 297 299 300 300 302 303 303 303 302 303 304 303 299 297 300 298 299 297 297 297 298 298 297 298 299 300 300 300 300 300 301 301 301 301
302 303 303 304 302 298 297 296 295 294 296 294 291 292 294 294 294 292 295 296 298 301 302 301 302 303 301 302 303 301 303 300 300 299 298 297 298 298 296 297 299 300 299 299 299 300 300 301 301 299 298 299 300 300
302 303 304 302 299 296 292 293 293 294 289 285 292 291 291 293 295 294 295 298 300 300 299 301 299 301 303 302 301 299 298 300 298 297 297 298 297 296 297 297 299 299 298 298 299 299 298 297 296 295 296 296 296 298
302 303 302 299 297 295 292 291 291 284 287 288 284 284 287 288 291 294 294 298 297 298 298 299 302 302 302 299 299 300 300 299 298 298 298 297 296 296 296 297 297 296 295 295 295 295 295 295 295 295 295 297 296 297
302 302 299 297 298 291 290 286 286 285 285 286 285 291 288 288 289 293 295 297 298 297 300 300 300 299 298 299 298 299 298 297 298 299 298 296 295 294 295 295 296 295 294 294 294 295 295 295 295 296 296 297 296 296
300 296 295 296 289 288 282 280 288 285 283 286 288 291 288 294 295 293 291 298 298 299 299 299 296 296 297 296 296 297 297 298 298 299 299 296 292 293 292 294 294 294 294 294 295 295 296 295 296 297 298 297 297 296
292 295 292 290 287 284 282 278 282 280 284 289 292 289 290 295 297 297 297 298 299 299 296 297 297 298 297 296 295 294 295 297 297 297 298 295 292 292 292 294 294 294 294 295 295 295 296 296 298 298 297 296 296 295
294 293 290 289 286 286 287 283 284 283 290 291 291 290 290 291 291 296 298 298 298 294 296 296 296 296 297 297 295 294 295 297 297 296 295 293 295 294 293 293 294 294 294 294 295 296 296 297 298 297 296 294 294 292
294 289 289 289 287 286 279 280 279 283 284 286 283 283 285 288 294 295 295 293 293 292 294 296 296 297 293 293 294 295 294 296 296 296 296 293 293 293 293 293 293 294 295 295 295 296 297 296 297 296 293 291 291 290
290 288 287 284 277 281 281 282 282 283 282 282 284 283 282 291 294 294 292 291 291 294 295 296 296 297 297 297 297 296 295 297 297 297 295 296 295 293 291 292 293 294 294 294 294 295 295 296 295 294 293 291 290 289
286 283 285 282 280 283 282 283 284 285 285 283 285 281 282 286 286 287 289 290 292 292 294 295 296 296 296 297 296 295 295 295 298 297 296 295 296 296 294 292 291 291 293 294 295 295 294 294 293 292 291 290 290 289
286 284 279 277 283 284 286 288 287 286 284 283 282 286 285 285 285 288 288 289 289 289 292 294 294 295 295 296 296 297 296 295 297 298 299 297 296 296 295 293 292 293 293 293 294 295 294 294 293 292 290 289 289 289
281 279 286 285 287 288 287 287 285 286 286 284 285 283 285 287 290 292 290 290 290 290 290 291 291 294 295 296 296 296 295 294 295 296 296 297 297 296 295 294 294 294 293 293 293 292 293 294 294 293 291 290 288 288
282 283 287 287 288 289 290 290 290 291 288 287 288 288 289 291 292 290 290 290 290 289 289 290 290 291 293 295 296 296 295 291 290 291 292 294 292 292 295 295 295 295 294 294 293 293 293 293 294 295 294 292 289 288
285 286 289 289 290 290 291 290 291 289 289 290 289 290 289 288 288 289 288 288 288 288 288 289 290 289 291 291 291 291 292 292 293 294 294 294 293 293 294 294 294 294 293 292 292 292 293 293 293 292 290 289 287 287
280 285 288 290 291 290 288 287 287 288 289 289 288 290 290 290 289 286 285 285 286 287 288 289 289 290 289 289 290 290 290 291 292 293 294 294 294 293 293 293 292 292 292 292 292 292 292 291 290 290 288 287 287 287
283 286 288 285 287 285 285 287 288 288 287 288 289 288 289 290 290 286 284 284 285 285 286 286 287 288 288 289 290 290 290 291 291 291 291 291 291 291 291 291 291 290 290 290 291 291 291 291 289 288 287 286 286 286
278 281 283 283 283 285 286 286 286 286 286 286 286 286 286 288 289 285 283 283 283 283 283 283 284 285 287 288 289 289 289 290 290 291 290 290 290 290 291 291 291 291 290 290 290 290 290 289 288 287 287 286 286 286

GFSWCAN_925_thetae_297.txt.gz
Theta_e
308 309 312 312 312 313 312 312 312 313 314 316 317 317 315 315 313 306 301 299 310 312 309 310 311 311 310 310 312 308 309 307 306 312 312 311 313 312 313 309 307 309 309 308 306 310 316 308 305 311 310 307 308 304
306 307 308 310 313 313 313 312 312 312 312 313 316 316 316 314 314 310 304 300 300 309 311 310 312 312 311 309 310 304 311 307 309 312 309 311 313 310 312 314 305 310 310 310 310 312 309 304 309 306 305 307 305 304
306 306 307 312 309 308 311 312 312 312 312 312 313 313 315 314 312 312 307 301 302 306 305 307 310 311 310 311 311 309 304 306 307 307 309 309 311 309 313 312 310 306 305 308 308 307 308 306 306 304 303 304 304 303
304 305 307 307 307 308 308 310 311 312 312 312 312 312 312 314 312 309 307 302 301 303 303 304 303 305 306 307 310 310 307 305 306 308 306 304 308 309 311 311 311 310 306 308 307 308 308 308 307 307 304 302 303 302
304 304 305 305 306 306 307 308 308 311 312 312 311 312 312 313 313 309 305 302 303 305 304 304 303 304 305 305 306 309 306 306 307 308 304 306 306 308 305 305 310 307 309 311 313 309 311 312 310 307 306 306 304 303
303 305 305 304 305 305 307 308 309 311 312 312 312 311 312 313 313 305 300 302 302 304 302 307 302 302 303 304 306 307 307 306 307 308 308 305 304 310 305 309 312 309 308 309 312 308 307 307 307 307 306 306 304 302
303 304 304 304 303 304 305 306 307 308 308 310 310 311 311 313 310 307 302 303 302 302 299 302 303 301 300 303 306 306 306 306 308 308 308 307 308 308 299 313 312 308 309 310 309 308 308 307 310 305 304 305 306 303
303 305 304 303 302 302 302 304 307 307 307 308 308 312 312 312 310 304 304 303 302 297 297 302 303 301 299 301 306 303 304 305 306 311 307 312 308 308 310 313 309 310 310 307 307 308 309 310 310 309 303 303 305 305
303 304 304 302 301 301 301 303 305 307 307 308 308 309 310 300 297 299 302 301 300 298 299 300 304 304 297 297 299 302 304 308 305 309 310 311 311 313 313 312 311 307 308 309 307 307 307 308 309 309 303 303 305 305
303 304 303 302 301 302 304 303 305 307 307 307 308 298 296 295 299 300 298 294 294 293 294 300 299 300 298 298 301 303 302 306 305 305 307 309 310 310 310 310 306 306 307 308 309 309 309 309 310 309 306 306 306 305
304 303 301 301 303 302 303 304 306 307 307 304 293 292 295 297 297 294 296 299 297 297 296 298 299 298 297 303 303 301 303 303 307 306 309 308 308 309 308 308 309 309 307 306 307 309 309 309 309 306 304 303 301 300
302 302 301 301 302 302 303 304 306 306 301 299 294 293 293 293 296 297 297 297 297 299 297 300 300 298 298 300 303 300 304 303 307 305 307 308 307 307 305 306 307 307 308 308 308 308 308 304 304 303 303 300 298 298
301 300 301 301 301 302 304 305 306 302 297 297 294 294 295 295 296 298 298 298 298 295 296 299 299 298 298 299 302 302 305 306 303 306 307 304 302 301 300 302 303 305 305 306 306 306 306 306 303 301 299 298 297 297
299 300 301 301 301 303 304 305 300 300 298 295 296 295 296 294 293 295 294 294 295 294 297 300 297 300 300 303 302 304 304 303 305 306 304 304 299 301 301 298 298 300 300 301 301 302 304 303 299 299 299 298 297 298
301 301 301 302 302 303 304 301 301 300 294 295 295 297 294 292 291 291 291 292 293 296 299 300 300 299 301 303 302 303 304 305 302 303 300 298 298 298 297 297 297 297 297 298 299 299 298 297 297 297 298 299 300 300
300 301 302 302 303 303 302 299 297 295 292 295 295 295 293 293 291 293 293 291 295 298 300 300 301 302 303 303 302 303 305 304 302 299 298 297 297 297 296 296 295 296 296 297 296 297 297 297 298 299 300 300 301 300
301 302 303 303 303 301 299 296 294 294 296 295 296 290 292 293 295 293 293 294 297 300 300 301 302 302 301 302 303 302 303 301 300 299 298 298 298 297 297 296 296 297 296 296 297 297 298 299 299 299 298 299 300 300
302 302 303 303 301 297 294 293 294 295 295 291 296 295 291 293 293 292 293 296 299 299 299 300 298 301 301 300 299 297 297 298 299 299 299 297 297 296 297 296 296 297 297 297 298 298 299 299 299 299 298 299 299 298
301 302 303 300 298 295 293 291 291 294 290 291 288 288 292 292 292 293 295 298 297 298 298 299 301 299 299 296 297 298 298 298 299 297 297 296 296 296 296 296 297 297 296 296 296 297 298 298 298 297 296 296 295 296
302 303 301 298 298 292 292 289 286 289 291 290 289 292 291 289 289 292 295 296 297 297 299 300 299 297 297 297 297 298 297 297 298 299 298 297 296 295 295 295 296 296 295 294 295 295 294 294 295 295 295 296 295 295
301 299 295 295 289 287 286 284 287 283 286 290 291 292 291 293 294 290 292 297 298 299 297 296 292 295 296 296 296 297 298 298 299 298 298 298 296 293 294 294 295 294 293 292 293 293 294 293 294 295 296 296 297 297
292 293 291 290 287 286 285 279 284 283 285 291 292 287 293 295 296 296 295 298 298 298 293 294 295 296 296 295 296 294 296 297 297 296 298 297 294 293 292 292 292 293 293 293 293 294 294 295 296 296 297 297 297 295
294 293 290 288 288 287 287 281 284 282 291 292 292 291 291 292 294 296 298 297 294 292 295 295 294 294 295 296 297 296 296 294 295 295 297 296 294 294 293 293 294 293 293 293 295 295 295 296 296 297 297 295 295 294
293 289 289 288 285 282 275 276 277 280 281 291 290 283 285 288 292 296 297 293 293 291 293 294 294 295 294 293 295 297 297 295 295 295 297 293 293 293 293 293 294 294 295 295 295 295 295 296 297 296 295 293 293 291
294 288 289 285 277 278 278 285 280 284 285 282 283 285 282 287 295 295 294 291 290 291 293 292 293 295 296 296 296 296 297 295 295 296 296 296 295 293 291 292 293 294 295 294 294 294 295 296 296 295 293 291 290 290
289 284 285 278 278 283 283 284 284 285 285 283 284 280 284 291 291 288 288 289 289 290 290 291 293 293 294 295 296 296 296 295 296 296 296 296 295 295 294 292 291 291 293 294 294 294 294 294 294 293 292 292 292 290
285 283 280 277 283 284 285 286 285 284 280 282 280 286 285 283 285 288 287 287 288 288 289 290 291 292 293 294 295 295 296 296 295 296 297 297 297 297 296 295 293 294 295 294 294 294 294 294 293 293 292 291 291 291
282 280 287 283 285 287 284 283 283 285 286 285 286 285 285 287 289 290 289 288 289 290 290 290 290 290 290 291 293 294 295 295 295 295 296 297 297 296 297 297 298 298 297 296 294 294 294 294 294 293 292 291 291 291
281 280 285 284 285 287 287 287 286 288 287 287 288 287 286 287 288 287 287 288 288 288 288 288 289 289 290 290 291 291 293 292 290 292 293 295 294 293 294 293 295 295 294 294 294 294 294 294 294 294 294 294 294 293
280 280 286 286 287 288 288 288 289 288 287 288 289 290 290 289 287 285 285 285 286 287 288 288 288 289 289 290 290 290 292 292 293 293 294 294 294 295 294 294 295 296 295 294 293 293 292 292 292 292 291 291 291 290
279 284 285 287 287 288 287 286 287 288 288 288 288 290 290 290 287 284 283 283 285 285 286 286 286 288 288 288 289 289 291 291 292 292 293 294 294 294 295 295 294 294 294 293 293 292 292 292 292 291 289 289 289 289
283 286 288 285 285 284 285 287 289 289 288 287 289 287 288 289 288 285 283 282 283 283 284 284 284 284 285 287 288 289 289 289 289 290 290 290 292 293 294 293 292 292 291 290 290 291 291 292 290 289 289 288 288 288
277 281 284 285 283 283 285 285 285 284 285 286 285 285 287 289 287 284 283 282 282 281 281 283 283 284 283 283 284 285 287 288 289 290 291 290 289 290 290 290 290 290 289 289 289 289 290 290 290 289 288 288 288 288

GFSWCAN_925_thetae_300.txt.gz
Theta_e
307 307 308 309 311 313 312 314 313 314 316 319 320 320 318 318 314 309 303 299 308 310 308 309 309 310 309 309 311 307 308 306 305 311 311 311 311 311 311 309 307 309 310 308 309 310 315 308 305 311 310 308 308 305
306 306 306 307 309 311 312 312 312 312 312 314 313 317 317 317 316 312 307 304 301 308 308 310 311 311 310 309 308 303 309 306 308 311 308 309 312 309 311 313 305 309 312 312 311 312 309 304 309 306 305 307 307 305
305 306 306 307 308 310 312 312 312 313 312 311 312 313 316 316 313 312 309 303 301 304 301 302 306 309 311 312 311 308 303 306 307 307 309 309 311 307 311 310 309 306 304 308 308 307 307 306 306 304 304 304 304 302
304 304 305 306 307 308 311 311 313 312 313 312 312 312 313 314 314 311 308 303 303 302 303 304 303 303 305 309 310 310 306 305 306 308 309 308 308 307 309 309 309 309 305 306 306 306 307 307 305 307 307 303 303 302
305 305 304 304 306 308 310 308 309 311 313 312 312 312 312 312 313 311 308 303 305 307 305 305 303 304 304 305 307 308 308 307 308 309 309 311 307 310 305 305 310 306 308 311 313 308 310 311 308 308 307 307 306 304
305 305 303 303 304 306 307 307 307 307 308 311 312 312 312 312 312 306 301 302 304 306 305 309 302 302 303 303 304 305 307 306 308 309 309 308 305 310 310 309 314 312 307 309 311 310 306 308 307 308 308 307 306 304
304 304 303 304 304 304 305 306 306 306 307 308 311 312 312 311 312 307 304 305 303 305 302 303 304 302 300 302 304 305 306 306 308 309 309 312 308 309 310 315 314 312 309 308 309 307 308 306 309 307 306 307 306 305
303 302 302 303 305 305 304 305 305 306 308 309 310 312 312 312 311 306 306 305 302 299 299 303 303 302 300 301 305 303 305 305 306 309 308 312 310 308 311 313 312 312 311 308 306 305 308 309 308 308 308 306 302 304
302 301 301 302 305 304 304 303 304 305 307 308 308 309 309 305 299 301 305 302 301 299 299 300 306 306 298 299 300 302 303 308 306 309 310 311 312 312 313 313 312 312 311 311 308 309 309 308 308 308 308 306 302 304
302 302 303 303 304 304 303 302 302 303 306 308 308 301 299 297 300 300 299 295 295 294 295 302 300 301 298 299 303 304 302 307 306 305 308 310 311 310 311 310 310 309 309 310 310 310 310 309 308 308 307 307 305 305
302 301 301 304 304 304 302 302 303 305 306 305 295 295 297 298 297 294 297 299 297 297 297 299 299 299 296 303 305 302 304 303 307 306 309 308 307 309 309 309 309 309 309 307 308 309 310 310 309 308 307 305 303 303
302 301 302 303 304 303 302 303 305 305 303 299 296 294 295 294 296 297 298 297 298 300 296 299 300 297 297 299 303 300 305 303 307 305 307 309 307 307 306 306 307 307 307 308 308 308 308 308 307 306 304 303 302 303
303 303 303 303 302 301 301 303 305 302 300 297 294 295 296 295 297 298 298 297 296 295 295 299 299 299 298 299 303 302 304 306 303 306 307 305 305 302 302 302 302 304 304 304 305 306 306 306 307 305 304 302 303 300
303 303 303 302 302 300 301 302 303 301 300 296 297 295 297 295 296 297 295 295 296 295 298 300 298 301 300 302 302 304 304 303 305 306 304 304 302 300 300 299 298 299 298 299 299 300 302 303 304 304 305 305 299 296
302 301 302 301 300 300 301 302 301 301 295 297 296 298 295 292 290 291 291 292 294 297 299 299 299 300 302 303 302 303 304 305 304 302 300 298 298 298 297 296 296 295 295 296 296 297 298 299 299 299 299 299 298 297
301 300 300 300 300 301 302 300 298 296 293 295 294 290 290 292 289 290 291 291 294 298 298 298 300 301 302 300 301 302 304 303 300 298 298 297 297 296 295 295 295 294 294 294 294 295 296 296 296 296 297 297 297 297
301 301 299 299 300 302 300 299 296 295 296 296 293 290 292 292 292 290 292 294 295 300 295 296 300 299 299 300 299 299 301 299 298 298 298 298 298 297 296 295 295 295 296 295 295 295 295 297 297 296 296 297 298 298
300 299 300 300 301 298 295 295 295 296 295 290 291 293 289 292 292 291 292 295 297 297 293 294 293 298 296 297 298 297 297 297 297 297 297 296 296 295 295 295 295 295 295 295 296 296 297 296 296 296 297 297 298 298
299 300 301 301 299 296 294 292 292 296 289 289 289 289 293 293 293 292 293 297 295 296 298 299 300 297 298 294 297 296 296 296 297 297 296 295 295 295 295 295 295 295 295 295 295 296 297 298 298 297 298 298 296 296
299 301 302 300 300 292 292 289 288 289 287 288 287 291 293 293 292 294 296 297 297 298 300 300 298 296 296 296 296 296 296 296 296 297 297 296 295 295 295 294 294 295 295 295 295 296 294 294 296 297 297 297 295 294
300 299 297 297 291 288 288 287 286 288 288 291 292 293 294 294 294 292 295 296 298 299 299 295 292 295 294 294 294 295 295 295 296 297 297 297 297 294 294 294 294 294 293 292 293 293 296 294 295 295 296 296 296 296
292 294 293 291 288 286 286 283 288 285 289 291 292 291 294 296 296 295 296 298 298 296 293 293 293 294 294 294 294 294 296 296 296 295 297 297 296 295 295 292 292 292 292 293 294 294 293 295 295 294 295 295 296 296
294 292 289 288 288 288 287 282 288 285 293 292 292 292 292 293 293 295 297 295 294 291 293 292 293 293 294 294 295 294 295 294 295 296 295 295 296 296 295 294 293 293 293 293 294 294 294 295 295 295 295 295 295 294
293 289 289 288 288 286 281 283 282 283 290 291 291 288 287 291 291 296 295 293 292 291 291 293 294 294 292 291 293 295 295 295 294 295 296 295 295 296 295 294 294 294 295 296 294 294 295 295 295 295 295 294 293 292
294 289 289 286 280 284 287 287 284 287 288 286 285 283 282 286 294 294 292 291 290 290 291 291 291 293 294 295 294 293 295 294 294 295 295 295 296 295 293 293 293 293 294 294 293 293 294 295 295 295 294 293 292 291
290 282 282 275 278 284 285 288 286 285 284 281 281 278 287 292 293 291 288 289 288 289 289 289 289 290 290 292 293 293 294 295 294 294 295 296 295 296 296 295 292 291 293 293 294 293 293 294 294 294 293 293 294 292
286 282 277 273 281 283 285 286 285 283 279 281 282 286 286 284 286 287 286 286 287 286 288 289 288 288 289 290 291 292 293 294 294 294 295 296 296 296 296 295 294 295 297 294 294 295 294 293 294 294 293 293 293 293
279 280 286 284 286 286 284 281 281 282 282 281 284 285 282 285 288 288 287 287 287 288 288 289 289 289 289 288 289 289 289 290 291 293 293 294 295 296 296 296 296 297 297 296 294 294 295 294 294 293 293 293 293 294
280 279 283 282 283 283 283 286 286 286 285 285 286 285 286 286 287 287 286 285 286 287 286 286 287 288 288 289 289 289 289 289 288 290 291 293 292 293 295 296 295 296 296 296 294 294 295 294 294 294 294 294 295 295
281 278 283 282 283 285 286 286 287 285 283 283 284 286 288 287 285 283 283 283 284 284 285 286 286 286 287 288 287 287 289 289 289 291 291 292 293 294 295 295 295 294 294 295 294 293 293 294 294 293 292 292 292 291
278 283 284 285 284 285 285 284 285 285 286 286 287 289 290 289 285 283 282 282 282 283 283 284 284 284 285 285 286 288 289 289 289 289 289 290 291 293 293 294 294 294 294 293 292 292 292 292 292 292 291 289 289 289
282 286 286 284 284 282 284 287 287 287 286 287 287 287 289 289 287 284 282 282 282 282 282 282 283 283 283 283 283 284 285 286 287 288 290 290 290 289 290 292 292 291 292 292 291 292 292 292 291 291 290 289 289 289
279 282 284 283 282 281 283 283 282 280 281 284 285 286 288 288 286 284 283 281 281 281 281 281 282 282 282 282 282 282 282 283 284 285 286 289 290 290 290 289 289 289 289 289 289 290 290 291 291 290 290 289 289 289

GFSWCAN_925_thetae_303.txt.gz
Theta_e
308 308 308 311 314 314 313 313 313 315 319 318 319 319 319 317 314 309 304 299 307 307 306 307 307 308 308 308 311 306 308 306 306 312 312 311 311 311 310 308 308 310 310 310 309 312 316 307 306 312 313 308 308 305
305 306 307 310 310 312 313 313 312 314 315 316 319 318 319 319 317 311 308 306 301 308 305 309 309 310 309 309 307 302 310 305 308 311 308 309 312 308 311 313 304 311 312 313 312 313 310 305 311 308 306 308 308 307
305 305 307 307 307 308 309 314 313 313 313 313 314 317 316 316 316 313 310 304 302 303 301 301 303 309 310 311 309 307 303 305 306 306 308 308 311 308 312 311 309 305 304 309 309 308 308 307 308 305 306 305 305 304
304 305 305 306 306 306 307 308 312 312 312 312 312 313 313 313 314 310 309 305 304 302 304 305 301 302 305 309 311 310 305 305 305 307 307 305 309 307 309 310 310 309 306 307 307 306 306 307 306 307 307 306 304 304
303 303 304 305 306 306 306 306 308 310 312 312 312 312 312 313 313 310 307 304 307 310 307 306 303 304 303 304 309 310 308 307 308 309 309 308 306 309 304 305 310 306 307 311 315 309 311 312 309 308 307 307 306 306
301 302 302 304 304 305 306 307 308 311 310 311 313 312 312 313 313 310 303 303 306 309 307 310 304 303 303 304 305 307 308 308 309 310 311 312 308 312 312 315 316 314 309 311 312 311 307 308 307 307 307 307 307 306
302 303 303 303 303 304 305 307 308 308 307 308 309 313 312 312 312 307 306 307 307 307 303 303 305 301 301 302 303 304 305 306 308 309 311 313 308 312 309 317 316 315 315 314 311 307 308 306 309 306 307 308 308 308
302 304 304 303 303 302 304 305 306 307 306 306 307 307 310 312 312 308 308 308 304 303 302 303 304 302 300 301 305 303 305 306 306 309 308 312 312 310 310 312 312 312 312 312 312 306 310 309 306 307 307 306 306 307
302 304 304 304 304 303 304 304 305 306 305 305 306 309 309 306 302 303 308 304 303 301 300 300 307 307 298 300 301 303 303 307 306 308 309 310 311 312 312 312 312 312 312 313 312 311 310 310 310 310 309 308 307 308
302 303 303 303 302 303 304 305 305 305 305 306 308 303 304 298 301 301 300 296 295 294 295 302 301 302 299 301 303 305 303 308 307 306 308 310 311 310 310 310 310 310 310 310 311 311 311 311 311 311 310 308 307 307
301 301 302 302 302 302 304 304 304 305 306 305 294 295 297 298 298 295 297 300 298 298 297 300 300 300 297 304 305 303 305 304 308 307 310 308 309 310 310 310 310 309 309 309 309 309 310 310 310 309 309 306 306 306
302 301 301 301 302 303 304 304 304 305 304 301 297 295 296 294 296 298 299 297 298 298 297 299 300 298 298 299 304 301 305 303 308 304 307 309 308 308 306 306 307 307 307 308 308 308 308 308 308 308 308 307 305 304
302 302 301 300 301 303 304 303 304 303 300 298 296 295 296 296 297 298 297 296 295 297 295 298 300 299 298 299 303 302 305 306 303 306 308 305 303 301 302 301 302 302 302 303 303 303 304 304 305 305 306 306 305 304
301 301 302 301 301 303 304 303 304 302 302 297 297 296 298 295 292 293 295 294 295 294 297 300 299 302 300 302 302 304 303 303 306 306 305 304 301 300 299 298 297 298 298 297 297 297 298 298 300 302 303 304 304 300
301 302 302 302 302 303 302 302 303 302 297 297 297 299 296 291 290 292 292 292 294 296 299 300 300 301 301 304 302 303 304 305 304 303 301 298 298 296 297 296 295 295 295 295 295 295 295 295 296 297 298 300 301 301
301 302 302 302 302 301 301 301 299 298 294 295 294 291 291 292 288 290 291 294 295 298 299 299 301 302 303 303 301 302 304 304 301 299 297 296 297 296 295 294 294 294 294 294 294 294 294 294 295 296 297 297 297 297
302 300 301 302 301 299 300 297 296 294 298 297 295 287 290 292 293 291 292 294 294 299 296 294 301 299 298 300 300 298 300 298 297 296 296 295 297 296 295 294 294 294 294 294 294 295 295 296 296 295 295 296 296 296
300 300 300 301 300 300 296 296 295 296 296 289 293 293 288 290 291 291 292 295 297 297 294 296 294 300 299 297 296 295 296 296 296 296 295 295 294 294 294 294 294 294 293 294 295 295 295 295 295 295 295 295 296 296
300 300 299 300 299 296 294 292 292 296 287 288 286 288 292 291 291 291 292 296 294 294 297 299 300 298 297 294 296 296 295 295 296 295 294 294 294 294 295 295 295 294 294 294 294 295 296 296 296 296 296 296 297 296
300 300 299 299 299 293 292 290 288 290 292 290 288 292 289 289 290 292 294 295 297 298 300 300 299 295 296 295 294 295 294 294 294 296 295 294 293 294 294 294 294 294 293 294 294 296 295 294 296 297 297 297 296 295
299 300 297 297 291 289 286 282 285 287 286 288 292 294 293 292 294 293 295 296 298 299 298 294 291 294 294 294 293 293 293 293 294 295 296 295 295 293 294 296 295 294 292 292 293 293 296 294 296 297 297 297 298 297
292 295 293 292 288 285 283 278 282 283 285 288 292 289 290 293 295 295 295 298 299 295 293 292 293 295 295 293 294 293 295 295 294 293 296 296 295 294 294 294 292 293 293 293 293 294 295 296 297 296 296 297 297 296
293 293 290 289 289 286 284 280 283 283 287 291 290 290 293 294 295 295 295 293 293 291 293 293 293 293 293 294 294 293 294 293 293 292 293 293 294 295 294 294 294 293 294 294 295 294 295 296 296 294 294 294 294 294
293 288 289 288 286 284 279 284 280 285 288 289 289 291 290 292 292 296 296 293 292 291 291 292 292 292 291 290 290 292 292 293 292 293 294 292 293 294 294 294 295 295 294 296 295 294 294 295 295 294 294 293 293 292
293 288 289 286 277 280 281 285 285 287 289 289 288 286 284 287 294 294 292 291 290 290 289 289 289 290 292 292 291 291 293 293 292 292 293 294 293 293 293 293 294 294 295 294 293 293 293 294 294 294 293 293 293 292
291 284 284 282 279 282 284 285 286 289 287 287 286 284 287 292 289 289 288 288 287 287 287 287 287 288 288 288 289 290 291 292 292 291 293 293 293 293 294 294 294 294 295 294 294 293 294 294 294 294 293 294 294 293
289 284 281 275 282 284 287 286 286 287 287 287 284 287 285 283 287 287 286 285 286 286 287 288 287 286 287 289 289 290 290 289 289 290 291 292 293 293 294 294 294 295 296 296 295 294 294 294 294 294 294 293 294 294
281 281 287 285 286 285 283 280 281 283 284 282 284 283 283 285 287 287 286 286 285 285 286 287 287 287 287 287 287 287 288 288 288 288 289 289 290 291 292 293 294 295 295 296 296 294 293 294 294 294 294 293 293 294
284 283 285 285 283 282 282 284 284 284 283 284 285 284 284 285 286 285 284 283 283 284 283 284 285 285 285 286 286 287 287 287 286 287 288 289 290 290 292 293 294 294 295 295 295 295 294 293 294 294 294 294 294 294
280 276 280 279 281 284 284 285 286 283 281 283 284 285 287 285 283 282 282 282 282 282 282 283 284 283 283 284 285 285 286 288 289 289 289 289 290 290 291 292 292 293 294 294 295 294 293 293 293 293 293 293 293 292
279 281 282 283 283 283 284 283 283 283 283 283 285 288 289 285 283 282 282 282 282 282 282 283 283 283 283 283 284 284 285 285 284 284 286 287 289 289 290 289 290 291 292 291 293 293 293 293 293 292 291 291 291 290
280 284 283 282 281 279 282 284 286 286 286 285 283 283 287 287 284 282 281 281 281 281 282 282 282 282 282 282 282 282 283 282 282 283 284 286 287 289 289 289 289 289 290 290 291 291 291 292 292 291 291 291 290 290
277 281 282 281 280 279 281 281 280 278 279 280 282 286 287 287 285 284 282 280 280 280 280 280 280 281 281 281 281 281 281 282 282 282 283 284 285 286 289 290 290 290 289 289 288 289 289 290 291 291 291 291 290 290

GFSWCAN_925_thetae_306.txt.gz
Theta_e
308 308 308 308 309 312 314 313 314 314 315 319 319 318 316 314 312 306 304 300 310 317 312 308 310 313 313 316 318 312 314 312 315 324 322 320 319 317 317 317 316 318 320 318 318 321 322 315 310 316 320 315 314 312
306 307 308 309 309 310 312 314 314 313 314 316 319 319 318 315 313 310 308 304 302 310 310 308 309 309 310 313 316 310 317 314 316 319 319 319 319 316 318 321 312 318 321 323 321 320 317 312 317 314 313 316 314 313
305 306 307 307 309 309 310 313 313 313 314 315 316 318 317 317 315 312 310 304 302 306 305 305 307 308 309 310 309 315 311 312 313 314 318 321 322 317 321 318 318 312 313 315 317 318 313 313 312 312 311 312 312 312
303 305 305 306 308 308 308 309 313 313 312 313 313 312 316 315 314 311 308 304 304 303 306 308 302 303 306 309 310 309 308 307 310 314 319 320 322 315 321 319 319 319 312 314 315 316 311 312 312 314 314 313 311 312
302 304 304 305 306 307 307 308 309 313 312 312 312 311 313 314 313 309 308 305 307 311 308 308 304 304 302 306 310 310 308 309 312 315 316 318 315 313 312 313 316 313 316 317 321 319 318 317 317 316 313 314 313 313
302 303 304 305 304 305 306 306 307 308 311 313 312 312 312 312 313 308 305 305 306 310 308 311 305 304 304 303 306 308 309 309 311 312 313 313 310 313 315 318 318 317 313 315 315 315 316 316 315 316 317 316 315 314
302 302 302 303 304 305 305 306 306 306 310 311 313 313 313 313 312 309 308 309 308 308 305 304 308 305 302 302 304 305 307 308 310 311 312 314 313 313 311 317 318 319 318 317 315 315 317 316 316 316 315 313 312 312
301 302 302 302 303 304 304 305 306 307 307 308 309 311 313 312 311 308 308 309 306 304 302 303 305 306 303 306 306 306 307 307 307 310 309 313 313 311 311 315 315 315 316 316 316 317 317 316 315 314 314 314 313 314
301 302 302 302 303 303 303 304 306 308 307 306 307 307 309 307 303 305 308 305 306 302 302 301 309 313 302 305 305 306 308 307 307 308 310 311 312 313 313 313 315 315 315 315 315 314 314 315 315 314 315 314 315 314
302 301 303 303 302 303 303 303 304 306 307 306 306 304 304 302 302 302 302 297 296 295 297 305 307 307 305 304 306 307 305 309 308 307 309 310 311 312 314 314 314 314 314 314 314 314 314 314 314 314 314 313 313 313
301 300 301 302 302 302 302 303 304 305 306 305 294 296 298 299 299 296 298 301 298 300 298 302 306 305 300 307 308 306 305 305 310 310 311 309 312 313 312 313 312 312 312 312 313 313 312 312 313 313 312 311 311 310
301 301 302 302 302 302 302 303 305 305 305 302 298 297 298 295 296 300 302 300 302 305 300 303 302 303 301 302 307 302 306 304 312 306 308 312 312 312 311 310 309 310 310 311 311 311 311 311 310 310 310 309 309 309
300 300 300 301 302 302 302 303 304 304 302 300 296 296 297 297 300 302 301 302 302 300 300 301 302 301 300 302 305 303 308 309 304 308 310 311 310 304 305 305 306 305 304 305 306 306 306 306 306 306 307 306 306 307
301 301 302 302 302 301 302 304 304 303 302 299 300 299 302 299 301 302 301 302 299 299 300 302 302 304 302 303 303 307 306 305 308 309 309 309 307 305 304 302 302 303 301 300 300 300 300 300 300 300 300 301 302 303
301 301 301 301 301 300 302 303 303 302 299 299 299 303 299 300 296 296 296 297 297 299 302 302 302 303 303 305 304 306 306 307 307 307 307 304 302 301 301 300 300 300 300 300 300 300 300 300 300 300 300 300 300 300
300 301 302 301 301 301 303 302 299 295 294 298 298 299 295 297 296 295 296 298 298 301 302 303 304 305 306 306 306 307 307 307 308 305 303 302 301 300 300 299 299 299 299 300 300 299 299 300 300 300 299 299 299 299
301 301 301 302 302 302 301 298 295 294 296 298 299 294 298 298 301 297 296 298 299 302 304 303 304 305 304 305 305 306 307 305 303 302 300 300 301 300 300 299 299 299 300 300 300 300 300 299 299 299 301 301 299 298
300 301 301 302 302 299 296 295 295 296 299 297 298 298 295 295 296 295 295 298 301 301 300 302 300 301 304 305 305 303 301 302 300 300 300 300 300 300 299 300 300 299 300 300 300 299 299 299 300 301 300 299 298 298
300 301 302 301 300 296 294 292 293 299 295 293 292 294 295 295 294 294 295 299 297 298 298 300 303 302 303 302 302 302 301 301 302 301 300 299 299 299 299 298 298 298 299 299 299 299 299 299 299 299 299 299 299 299
300 300 301 300 299 293 294 292 290 294 296 294 292 295 296 296 294 294 296 298 298 299 300 301 303 302 302 301 300 300 299 299 299 301 302 301 299 298 298 298 299 299 298 298 298 297 298 299 299 298 299 299 299 299
300 301 298 297 292 289 290 290 290 290 291 294 294 296 296 295 296 296 296 298 299 300 301 301 299 299 297 297 297 297 298 297 299 300 300 300 300 298 298 298 299 298 298 298 299 299 298 299 299 299 298 299 299 300
294 296 293 291 289 287 287 284 290 288 292 294 294 295 296 297 297 297 296 298 298 299 299 298 297 298 299 298 298 296 297 297 297 297 297 297 299 299 299 299 298 298 298 298 298 298 298 298 298 298 298 299 298 297
295 293 291 290 289 289 287 282 290 289 294 294 294 295 295 296 296 296 299 298 298 296 296 297 297 297 298 297 295 295 295 296 297 297 297 297 297 296 297 297 296 297 297 297 297 297 297 297 297 297 297 297 296 295
293 288 289 289 288 286 284 286 285 290 292 294 295 293 292 294 295 297 298 296 295 294 294 295 295 296 295 294 295 295 295 294 294 295 295 295 295 296 295 295 295 295 296 296 296 296 296 296 296 296 295 295 294 295
294 289 290 286 281 285 285 286 286 289 291 291 291 290 290 289 296 297 295 293 292 292 291 290 291 291 293 293 293 293 292 292 293 294 294 294 294 294 295 294 294 294 295 295 295 295 295 296 296 296 295 295 295 295
291 284 289 285 285 288 287 288 288 289 289 289 290 288 288 293 294 294 292 291 290 290 290 290 290 291 292 291 292 292 292 291 291 292 292 292 292 293 294 294 295 295 295 294 295 295 295 295 295 295 295 295 295 294
285 285 282 277 284 286 288 288 288 290 289 289 288 289 292 293 291 290 288 288 289 288 287 287 288 288 289 289 289 289 288 288 288 289 289 289 289 290 291 292 293 293 293 294 294 294 295 295 295 295 295 295 295 295
282 281 286 285 287 286 286 288 289 290 290 286 288 288 288 290 290 288 287 286 284 284 285 286 286 286 286 286 286 286 287 287 287 287 287 288 288 289 289 290 290 291 291 292 293 294 294 294 295 295 295 295 295 295
284 284 286 283 284 285 285 287 287 287 285 287 289 288 287 286 286 285 284 283 282 283 284 284 285 284 284 285 285 285 286 287 288 288 287 288 289 288 288 289 289 290 291 292 293 293 294 294 294 294 294 294 294 295
283 281 284 282 283 288 287 286 287 285 284 286 287 287 287 284 282 282 281 282 283 283 283 283 283 283 284 284 284 284 285 285 285 285 285 286 286 286 287 287 289 289 289 290 291 292 293 294 294 294 294 293 292 293
282 285 285 286 285 286 286 285 286 286 286 287 287 290 288 284 283 282 281 281 282 282 283 283 283 282 283 283 283 284 284 284 283 283 283 284 285 286 286 286 288 288 288 289 290 290 292 294 294 293 292 291 292 292
284 285 286 284 285 283 284 287 287 287 287 288 287 287 287 287 285 283 281 281 281 281 281 281 282 283 282 282 282 282 282 282 282 282 283 283 284 285 285 286 288 288 288 288 289 289 290 291 292 292 291 292 291 291
281 283 283 283 283 283 283 283 282 283 283 285 285 286 287 287 285 283 281 280 280 280 280 280 280 280 281 281 281 281 280 280 281 281 282 283 283 284 284 284 285 287 288 288 289 289 289 289 290 290 291 291 291 291

GFSWCAN_925_thetae_309.txt.gz
Theta_e
307 308 308 307 309 309 310 312 313 312 313 318 317 317 316 314 312 306 303 302 315 321 314 313 315 317 319 321 322 318 317 316 318 327 325 323 323 321 321 322 319 321 324 323 323 327 326 321 314 318 322 322 319 317
305 306 307 307 308 308 309 308 311 312 312 313 314 317 317 316 314 310 305 303 306 313 314 310 310 311 314 316 318 315 320 318 319 322 323 323 323 322 322 324 319 322 324 326 325 325 321 316 320 316 318 321 320 318
304 305 307 308 308 308 309 310 312 312 313 314 314 314 316 317 315 312 308 306 303 306 308 308 308 308 309 310 312 317 317 318 318 319 322 327 326 322 324 324 323 318 320 322 323 323 321 317 317 318 317 317 318 317
304 305 306 307 308 308 308 307 308 310 313 314 314 315 317 315 315 314 310 305 304 310 312 309 305 307 308 309 312 311 311 312 315 317 326 327 327 322 324 324 325 324 321 319 319 320 320 318 316 317 317 317 316 315
303 303 305 306 306 307 309 309 309 309 313 315 314 312 312 315 313 311 308 305 305 309 310 313 307 305 304 308 310 311 310 312 315 319 321 323 319 320 319 319 321 323 322 321 323 322 321 322 321 320 318 317 316 316
303 302 303 305 305 307 308 308 308 308 311 313 313 312 312 314 311 307 306 304 304 309 309 313 306 306 304 304 307 311 312 311 314 316 316 317 315 315 322 323 321 321 320 319 320 319 319 318 318 318 318 318 318 318
303 302 302 304 305 305 306 307 307 308 308 311 312 313 312 313 310 309 308 309 306 310 305 305 308 305 303 303 305 307 308 309 312 313 313 314 314 313 312 318 319 321 320 320 319 318 318 318 317 317 319 319 319 319
302 302 302 303 305 305 304 305 306 307 307 309 313 312 311 312 310 309 309 309 306 304 303 304 305 308 305 306 307 307 307 308 308 310 310 313 313 313 313 316 315 315 316 316 317 317 319 318 318 318 318 318 318 317
302 302 302 302 302 303 304 304 305 306 308 308 309 311 310 306 305 307 310 306 306 304 302 301 310 313 307 308 308 308 308 307 307 308 310 311 312 312 315 315 315 315 316 316 317 317 317 317 317 316 316 316 316 316
301 301 302 302 302 303 304 304 305 305 308 307 306 302 303 303 303 304 303 298 297 296 299 308 311 310 308 307 308 308 307 308 307 307 309 311 311 312 314 314 314 315 315 315 316 317 316 316 316 315 315 314 314 314
301 301 301 302 302 303 303 303 304 307 307 304 295 296 299 300 300 297 299 301 299 301 298 308 311 307 305 309 309 308 306 306 311 312 311 310 313 314 314 314 314 314 314 315 315 315 315 314 314 314 313 312 312 312
302 302 301 302 302 302 303 303 304 306 303 301 299 298 299 295 297 301 303 300 303 306 303 307 309 308 305 307 308 304 307 305 313 308 310 314 314 313 313 313 313 313 313 313 313 312 312 312 312 311 311 310 310 309
301 301 301 301 302 302 302 303 304 304 303 300 296 297 298 298 303 304 304 304 306 304 303 302 304 302 301 305 306 304 308 310 306 308 312 312 313 309 309 309 309 309 309 307 307 307 307 306 305 304 304 304 304 304
300 301 301 301 301 302 302 304 304 303 303 299 301 301 304 301 303 304 304 305 302 304 303 305 304 305 302 304 303 308 306 305 310 311 310 311 311 309 308 308 307 306 304 303 303 302 302 302 303 302 302 302 302 302
301 301 301 301 301 301 302 303 303 302 300 300 299 305 303 304 301 303 300 299 299 302 305 304 304 304 304 305 304 306 307 310 309 310 310 308 305 305 304 303 303 302 302 302 302 302 302 302 302 302 302 302 302 302
301 301 302 302 301 301 303 302 300 299 297 299 298 303 301 302 300 299 300 301 301 304 305 305 305 306 307 307 307 308 308 309 310 308 307 305 304 303 302 302 301 301 301 302 302 302 302 302 302 302 302 301 302 302
301 302 301 301 301 301 301 299 296 297 301 300 301 301 302 303 304 301 300 300 301 304 306 304 307 307 305 307 307 307 308 308 307 306 305 304 304 303 302 302 301 301 302 302 302 302 302 301 302 302 302 303 303 302
301 302 300 301 301 299 297 296 295 296 300 299 300 302 301 301 302 300 300 300 303 305 304 305 305 305 306 307 307 308 306 305 304 304 303 303 302 302 302 302 302 301 301 301 301 301 301 301 302 302 302 302 302 302
301 301 301 301 300 298 295 294 293 301 299 297 296 298 299 299 298 299 299 302 302 302 302 304 306 306 306 306 306 305 305 304 305 304 303 302 302 302 302 301 301 301 301 301 301 300 300 300 300 301 301 301 302 302
300 302 301 300 300 295 296 295 290 298 299 297 296 298 300 300 298 298 301 301 301 302 301 301 304 305 304 304 304 304 303 302 302 303 303 303 302 301 301 301 301 301 301 301 300 299 300 300 300 301 301 301 301 302
301 300 298 298 292 291 294 294 294 295 294 297 297 299 297 297 298 299 300 299 300 299 301 303 303 303 301 301 301 302 301 301 302 302 302 301 301 300 300 300 300 300 301 301 300 300 299 300 300 300 300 301 301 302
294 298 295 292 291 290 290 288 294 292 296 296 297 298 298 299 298 297 298 299 299 300 301 301 301 301 301 301 300 299 300 300 300 299 299 298 299 299 300 299 300 300 300 300 299 299 299 299 299 299 299 300 300 301
295 294 291 291 291 292 290 287 294 294 297 296 297 298 298 298 298 296 298 298 299 299 299 299 299 299 299 299 299 298 298 298 298 299 299 298 298 298 297 297 298 298 299 298 297 297 298 298 298 298 298 299 299 300
293 290 292 291 292 290 288 291 291 294 296 297 299 298 296 297 296 298 300 299 297 298 297 298 298 298 298 297 298 298 298 297 296 296 296 296 296 296 296 296 296 297 297 297 297 297 297 297 297 297 298 298 299 299
295 291 292 290 287 290 292 292 292 294 295 295 297 295 294 293 297 298 298 297 297 296 294 293 294 295 296 296 294 294 293 294 295 295 295 295 295 295 295 295 296 296 295 296 296 296 297 297 297 297 297 298 298 298
294 288 292 292 289 292 293 293 293 293 293 294 294 293 293 296 297 298 296 294 293 292 292 292 292 293 294 293 293 294 293 292 291 292 292 293 293 293 293 294 294 294 294 294 295 296 296 296 296 297 297 297 297 297
292 289 286 282 288 291 292 290 291 294 294 293 292 292 294 295 296 294 290 289 290 289 288 289 289 290 291 291 290 290 289 289 289 290 290 290 290 290 291 291 292 291 291 291 291 292 293 294 295 296 296 296 297 296
287 287 290 288 289 289 291 293 293 294 295 292 293 292 294 296 293 289 288 287 286 286 287 287 287 287 287 287 287 287 288 288 288 288 289 289 289 289 290 289 288 288 288 289 290 291 292 293 294 295 295 296 296 296
288 288 289 286 288 290 290 292 292 290 289 291 293 292 289 288 286 287 286 285 284 285 286 286 286 286 286 286 286 286 287 286 286 287 287 287 288 287 286 286 286 287 287 287 289 290 291 291 293 294 295 295 295 295
288 286 289 287 288 291 290 289 289 288 288 289 289 288 287 285 284 283 284 284 285 285 285 285 285 285 286 286 286 285 286 285 284 284 285 285 285 285 285 285 286 286 287 288 289 289 290 291 292 293 294 295 294 294
286 288 290 290 289 288 287 288 289 289 289 290 290 291 288 285 284 283 283 283 284 284 285 284 284 284 284 284 284 284 285 284 283 283 283 283 283 284 284 285 285 285 286 287 288 288 289 290 291 292 294 294 293 293
287 288 289 289 289 286 287 289 289 289 289 290 289 289 287 287 286 284 282 282 283 283 282 282 283 284 283 283 283 283 282 282 281 281 282 282 283 283 284 284 283 283 285 285 287 289 289 290 290 291 292 292 292 291
286 287 287 287 287 287 286 287 287 287 287 288 287 288 288 288 286 284 281 281 281 281 281 281 281 281 281 281 281 282 281 280 280 281 281 282 282 283 283 282 282 282 283 284 285 285 286 287 288 289 290 290 290 291

GFSWCAN_925_thetae_312.txt.gz
Theta_e
307 308 309 308 310 310 310 311 312 313 312 311 317 316 315 314 312 306 303 305 313 318 315 314 316 319 320 320 321 316 316 316 316 324 327 325 324 322 322 319 316 316 318 317 317 321 324 318 313 316 317 321 320 317
309 309 308 309 309 309 310 310 312 312 313 310 316 316 315 315 313 309 305 303 304 312 314 311 311 313 313 314 319 315 318 316 318 323 323 322 322 322 321 322 318 321 322 321 319 319 320 313 316 313 315 318 320 318
307 308 307 307 308 309 310 309 311 311 312 310 311 315 315 315 314 312 308 305 303 306 311 310 310 310 311 311 313 317 316 317 318 319 322 323 328 321 322 321 320 318 317 320 321 320 319 316 314 316 317 315 315 315
306 306 306 306 306 307 308 309 310 310 311 311 312 312 314 315 315 314 310 307 304 306 309 309 309 308 309 309 310 311 311 314 315 320 327 327 327 322 322 321 321 320 316 317 318 318 317 317 314 315 315 314 314 314
305 304 304 305 306 307 308 308 309 308 309 312 312 313 312 314 314 313 312 310 305 306 308 312 307 307 306 309 310 311 310 313 315 316 322 325 321 318 319 318 320 321 322 321 321 318 318 318 319 316 314 314 314 314
305 304 304 305 306 307 308 308 308 307 308 309 311 314 313 312 314 311 306 306 306 305 313 314 307 308 305 305 309 311 311 312 315 317 318 317 313 317 318 321 320 318 318 319 320 319 317 317 316 315 315 315 314 314
304 304 303 304 306 306 306 308 308 308 307 307 312 313 313 312 312 309 307 307 305 307 307 308 309 305 303 305 306 308 310 311 312 312 312 314 313 312 312 317 318 318 317 317 315 314 316 317 315 315 315 315 316 317
304 303 303 304 305 305 306 307 308 308 308 308 310 313 312 311 309 308 308 308 306 305 304 304 305 307 304 306 306 306 308 308 309 311 310 313 312 312 313 314 314 314 314 314 314 314 315 315 315 316 316 316 315 315
303 303 302 303 304 305 304 305 306 307 308 308 308 312 309 308 307 308 308 306 305 303 301 301 308 313 306 308 307 308 307 307 307 309 310 311 312 313 313 313 313 313 314 315 316 315 314 315 315 315 314 314 314 314
303 302 302 303 304 305 304 304 305 306 308 308 307 298 307 304 307 307 304 299 298 297 299 305 310 309 308 307 308 307 306 307 307 305 308 308 308 309 312 312 312 313 314 313 314 315 314 314 314 313 313 312 311 310
302 302 302 302 302 302 304 303 304 305 306 303 295 295 297 301 300 298 301 307 299 301 298 306 310 307 306 309 308 307 306 305 309 309 310 309 310 311 311 310 310 312 312 313 313 313 313 313 313 312 311 310 309 309
302 302 302 302 301 302 303 304 304 305 302 300 298 298 299 295 297 301 303 300 303 305 302 308 309 306 305 308 306 304 307 304 313 307 310 312 310 310 311 311 312 312 312 312 311 312 311 310 309 307 307 307 307 307
301 302 302 302 302 302 303 303 304 301 300 301 296 296 298 297 304 304 304 304 305 303 303 303 304 302 302 305 304 305 308 309 307 309 311 309 310 308 308 308 310 311 310 307 305 305 304 304 304 303 302 302 302 302
302 302 301 302 302 302 303 304 302 302 300 296 300 302 304 302 304 305 305 304 303 304 304 304 303 304 302 306 302 308 306 305 309 310 308 308 308 308 306 306 306 306 302 302 302 301 302 301 301 302 302 302 302 301
302 302 301 301 301 302 303 304 303 303 299 299 299 305 303 303 302 302 299 299 301 303 304 304 303 303 303 304 303 304 306 309 307 308 307 306 305 304 303 302 301 301 300 301 301 301 301 301 300 300 302 302 302 301
302 301 302 302 301 302 303 302 301 299 295 299 299 303 302 302 299 299 301 301 302 304 305 304 303 305 307 306 306 308 308 308 306 306 305 303 302 301 300 300 300 299 299 300 300 301 301 301 301 301 301 301 302 302
301 302 301 300 301 302 302 300 298 297 300 300 301 300 302 303 302 301 300 300 303 304 305 303 307 307 303 307 307 306 306 307 307 305 303 303 302 301 300 300 299 299 300 301 301 301 301 301 301 301 299 301 302 302
302 301 301 301 301 300 298 296 295 297 300 299 300 300 300 300 300 299 299 300 303 303 302 304 302 305 306 306 305 305 305 304 302 301 301 301 301 300 300 300 300 300 300 300 300 300 300 299 298 298 300 301 301 301
302 301 301 300 300 299 295 293 294 300 299 297 297 297 300 298 297 299 299 301 301 301 299 301 304 305 305 304 304 304 303 303 303 302 301 301 301 300 300 301 300 300 300 300 300 299 299 299 299 299 300 300 300 301
300 301 300 299 299 294 296 294 292 297 299 296 297 299 299 298 297 298 300 300 300 300 300 301 302 303 303 303 302 302 302 301 301 301 301 301 300 300 300 300 299 300 300 300 300 300 299 299 299 300 300 300 300 300
300 299 299 299 293 292 293 294 295 296 295 298 297 298 297 297 298 299 299 299 298 299 300 299 300 301 300 300 301 300 300 299 300 301 301 300 298 298 298 299 300 300 298 298 297 297 299 297 298 299 299 299 299 300
295 298 295 293 292 291 291 289 294 293 297 297 298 298 298 298 298 298 297 299 299 299 298 299 300 300 300 299 299 299 300 299 300 299 298 298 297 297 297 298 297 296 296 297 297 296 297 298 298 298 298 298 298 298
296 296 292 291 293 293 290 288 295 295 298 297 298 299 299 300 298 297 299 298 298 297 298 298 298 299 299 299 299 299 299 298 296 296 297 297 298 297 297 297 297 296 295 296 297 297 297 297 297 297 297 297 297 297
295 291 292 293 292 290 290 293 292 295 297 298 298 297 297 297 296 298 298 298 296 296 296 297 297 297 297 296 296 296 296 296 295 295 296 295 294 294 296 296 296 296 296 296 296 296 296 296 296 296 296 296 296 296
296 291 293 289 289 289 291 291 294 295 296 297 298 295 295 294 296 297 297 296 295 295 293 293 294 294 295 294 292 293 294 294 293 293 294 294 294 294 294 294 294 294 294 294 294 294 294 294 295 295 295 296 295 295
293 289 290 290 288 290 292 291 293 294 295 295 295 293 292 295 297 297 295 293 292 291 291 290 291 292 292 292 292 292 291 291 291 290 291 291 291 290 290 290 290 291 291 291 290 290 290 291 291 292 293 294 294 295
291 290 288 283 289 291 291 291 292 294 295 294 293 292 294 293 293 292 289 288 290 289 289 289 289 289 289 289 290 289 288 288 289 289 289 289 289 289 290 289 289 288 287 287 288 288 288 289 289 290 291 292 292 293
289 288 287 287 290 290 292 293 294 294 295 292 292 290 290 292 292 289 288 287 286 287 287 287 287 287 287 287 287 287 287 288 287 287 288 288 288 288 286 286 286 286 286 286 287 287 288 288 289 290 290 291 292 293
289 289 289 289 291 291 291 292 291 289 288 291 292 291 288 287 286 287 286 285 285 286 286 286 286 286 286 286 286 286 286 286 285 285 285 285 284 285 285 285 285 285 285 286 286 287 288 289 289 290 290 291 292 292
288 286 289 287 288 291 289 288 288 287 287 288 287 286 286 285 284 284 284 285 285 285 285 285 285 285 285 285 285 285 285 285 284 283 284 284 284 283 283 284 284 284 284 283 285 285 287 288 289 289 290 290 291 292
286 288 288 289 288 288 287 288 288 288 287 288 289 288 286 284 284 283 283 283 284 284 285 284 284 284 284 284 284 284 284 284 283 282 282 282 282 282 283 283 283 283 283 283 283 283 285 286 286 287 289 290 290 291
287 288 288 286 288 286 287 289 289 289 289 289 289 287 286 287 286 283 282 283 283 282 283 282 282 283 283 282 282 282 283 282 281 280 280 281 282 282 282 283 283 282 282 282 282 282 283 284 284 285 286 286 287 288
285 286 287 286 284 285 285 286 285 286 287 288 287 287 288 288 286 283 281 281 281 281 281 281 281 281 281 281 281 281 281 280 279 280 280 281 282 282 282 282 282 282 281 281 281 281 281 282 282 282 283 284 284 284

GFSWCAN_925_thetae_315.txt.gz
Theta_e
305 305 305 307 308 309 308 309 310 311 312 316 317 318 316 315 315 309 303 302 311 313 313 313 313 317 317 315 315 312 313 312 313 319 319 321 319 317 316 314 313 315 314 312 313 317 321 315 311 316 315 316 318 316
305 305 303 308 307 309 308 309 310 311 312 313 317 317 316 316 315 311 306 302 308 308 311 311 311 312 314 314 314 310 314 312 313 317 318 318 319 316 316 319 312 316 315 315 315 317 313 311 314 312 314 315 317 316
304 304 304 308 307 309 308 310 310 311 312 312 312 312 315 315 315 311 308 302 304 302 303 307 310 310 311 312 313 313 312 312 314 315 316 317 319 315 317 316 316 314 313 318 315 315 315 315 312 314 311 311 311 313
303 304 303 308 308 307 309 309 310 310 312 312 311 310 315 314 313 312 308 304 302 301 303 303 308 309 309 310 312 311 311 313 314 315 317 318 319 315 316 317 318 314 314 315 315 315 317 316 314 314 313 313 313 312
303 303 304 307 308 307 307 308 308 309 311 311 311 310 311 314 312 311 310 306 303 302 302 302 306 306 306 309 310 311 310 311 312 316 318 320 319 316 314 315 315 314 315 317 316 314 316 317 315 314 313 314 313 312
302 302 304 306 306 306 306 307 307 309 309 311 311 310 312 313 312 311 309 308 304 303 306 305 304 305 305 306 310 310 309 311 312 313 314 315 311 315 315 316 316 316 316 316 318 316 315 316 316 314 314 313 313 313
303 303 304 305 305 305 306 307 308 308 308 308 310 312 310 312 312 311 307 308 305 305 305 304 304 303 303 304 305 308 308 309 310 310 311 312 311 312 309 317 314 315 316 315 313 314 316 316 316 314 314 314 314 314
301 306 306 305 304 305 306 306 308 308 308 308 307 309 312 312 312 309 309 308 307 306 306 308 306 307 303 303 304 304 306 307 307 310 309 312 311 311 312 314 313 314 313 313 313 312 313 312 312 312 312 313 313 312
303 304 305 303 304 306 306 306 307 308 308 308 307 309 310 310 306 307 309 307 306 302 301 301 308 310 304 307 305 306 306 306 305 308 309 311 312 313 312 311 312 312 313 313 313 314 312 312 312 311 311 311 311 311
302 303 304 303 303 304 305 306 307 307 308 308 308 299 308 303 307 305 306 300 298 296 295 303 307 308 308 306 306 306 305 307 306 306 308 310 313 311 311 309 309 310 311 311 312 313 312 312 312 311 310 310 310 309
302 304 303 303 304 304 304 305 306 307 307 303 295 296 298 301 301 298 305 302 299 301 298 303 308 309 306 309 307 305 305 303 308 308 308 308 309 311 310 311 310 311 311 311 311 311 310 310 310 310 309 308 308 308
304 304 302 302 304 304 304 304 306 305 301 299 299 299 298 296 297 301 302 299 303 304 301 309 308 306 306 306 306 303 306 304 311 305 308 311 309 308 308 309 310 309 309 309 309 309 309 308 308 307 305 304 304 304
303 303 302 302 302 303 304 304 304 301 300 300 296 296 298 298 303 303 302 302 304 303 302 305 306 303 303 304 303 305 308 308 306 309 311 308 306 306 306 308 309 308 308 308 304 304 303 302 302 301 300 300 301 301
302 302 302 302 301 303 304 303 301 301 299 297 300 300 302 301 302 304 303 301 302 303 304 305 302 304 303 305 302 308 305 305 310 310 308 303 305 306 305 304 304 302 301 300 300 299 299 299 300 300 301 301 301 300
301 302 302 302 302 303 304 302 301 301 296 298 299 302 302 300 299 300 299 301 300 303 304 304 303 303 303 304 303 304 306 308 309 306 302 303 303 303 303 301 299 299 299 299 299 299 299 299 299 300 301 301 301 301
301 302 302 301 302 303 302 302 301 300 295 298 298 302 299 299 299 300 300 300 303 304 303 302 303 306 305 305 306 307 307 307 303 303 303 300 300 298 298 297 297 297 298 298 298 299 300 299 299 300 300 300 300 300
301 302 301 302 302 302 302 301 300 297 298 299 300 298 301 299 299 298 300 301 303 304 304 302 306 307 302 306 307 306 306 305 305 303 302 299 298 297 296 297 297 297 297 298 298 299 299 299 299 298 297 299 300 300
302 301 301 302 301 300 299 297 295 297 299 299 298 297 296 298 299 298 298 300 303 300 300 303 302 304 305 305 305 303 303 302 300 300 300 299 298 297 297 297 297 298 298 298 299 299 299 298 297 296 298 298 299 299
302 302 301 301 300 299 295 294 294 295 297 296 295 291 290 292 294 297 298 299 299 298 298 301 299 299 303 302 303 303 302 302 301 300 299 298 298 298 298 298 298 298 298 298 298 298 299 299 298 298 298 298 297 299
301 300 300 300 299 292 293 293 292 293 297 296 295 296 293 290 290 295 297 297 298 298 297 300 298 300 301 301 301 301 300 300 299 299 299 298 297 297 297 297 297 298 298 298 298 299 299 298 299 298 298 297 297 297
300 298 298 298 293 291 293 294 295 294 293 293 295 296 296 292 293 293 299 297 298 299 298 296 295 299 298 298 299 298 297 297 298 298 298 298 296 297 296 297 297 297 296 295 295 295 297 295 297 297 297 297 297 297
296 298 297 294 290 281 285 287 293 293 296 296 297 296 297 297 297 298 296 298 299 297 294 296 299 299 299 299 298 298 298 297 298 298 298 298 296 295 295 296 295 294 294 295 295 294 295 296 296 296 296 296 296 296
298 297 293 292 287 283 287 284 288 294 296 297 298 297 298 298 296 295 298 297 297 294 295 295 296 298 297 297 297 297 297 296 294 294 295 295 295 295 295 295 295 294 293 294 295 295 295 295 295 295 295 295 295 294
295 291 292 287 287 289 284 286 288 293 295 293 294 295 296 296 295 295 295 296 294 293 293 295 294 295 293 294 293 292 293 294 293 293 293 292 291 292 293 294 294 294 293 293 293 292 292 292 292 292 292 293 293 293
295 290 289 288 282 284 286 285 291 294 296 295 293 294 294 295 296 296 296 294 292 291 290 290 290 291 292 291 290 290 291 292 290 290 291 291 291 291 290 291 291 291 290 290 289 289 289 288 288 289 289 289 290 290
289 286 286 281 283 285 285 286 283 289 292 293 293 291 288 295 296 295 293 290 288 288 288 288 289 289 289 289 289 288 288 290 290 288 289 289 289 288 288 288 288 288 287 287 287 287 287 287 287 288 288 288 289 289
284 286 280 276 281 284 287 289 290 289 288 289 289 292 293 294 293 290 287 286 288 288 288 288 288 286 287 287 287 287 288 288 288 288 288 288 288 288 287 286 285 286 286 286 286 287 287 287 287 288 288 288 289 289
280 281 285 282 285 287 287 287 287 288 288 287 291 292 294 291 289 288 287 286 286 286 287 287 287 287 286 286 286 287 287 286 286 287 287 286 285 285 284 284 284 285 284 284 284 285 285 286 286 287 288 289 289 289
285 285 286 287 288 288 287 289 290 288 286 288 290 290 287 286 286 286 285 284 285 286 285 284 285 286 286 286 286 286 285 284 284 284 284 284 283 284 283 283 283 283 283 283 283 283 284 284 286 286 286 287 288 289
286 285 286 285 288 290 288 288 288 287 286 286 285 285 285 285 283 283 284 284 284 283 284 284 284 285 284 284 283 284 284 284 282 282 281 282 282 282 282 282 282 282 283 282 282 282 282 282 283 283 284 285 285 286
285 286 287 288 288 288 287 287 285 286 286 287 284 285 285 284 283 283 282 283 283 284 283 283 283 283 283 282 282 283 283 283 282 281 281 280 280 281 281 282 282 282 282 282 281 281 281 281 281 282 282 282 283 283
282 285 285 285 284 285 286 288 289 288 288 289 288 286 286 286 285 281 281 282 281 280 282 281 281 281 282 281 281 281 283 282 281 280 280 280 281 281 281 282 282 281 282 281 281 280 280 280 281 281 281 281 281 281
282 284 285 283 282 282 283 282 280 282 285 286 285 286 286 286 284 281 281 281 281 281 281 280 280 280 281 281 280 281 280 280 279 279 279 280 281 281 282 281 281 282 281 280 280 280 280 280 280 280 280 280 280 280

GFSWCAN_925_thetae_321.txt.gz
Theta_e
302 302 302 303 303 304 304 304 305 305 306 307 307 310 310 310 314 312 312 308 306 308 309 311 311 311 311 313 314 309 311 309 309 314 315 312 311 311 312 311 310 312 313 309 309 313 316 310 310 315 315 314 313 310
301 302 302 302 303 303 304 304 305 305 305 306 307 309 310 310 312 313 314 308 305 308 309 308 310 311 310 312 313 308 314 310 312 314 310 311 315 309 310 314 309 315 312 314 313 314 311 310 312 310 311 314 313 311
301 302 302 302 303 303 304 304 305 305 305 306 307 308 309 310 313 314 313 309 306 306 306 306 307 311 311 310 311 311 308 309 310 309 310 312 315 311 312 311 312 309 309 312 313 311 311 310 311 311 310 314 313 311
301 302 302 302 302 303 303 304 305 305 305 305 306 309 310 312 312 312 312 309 308 305 306 305 305 307 309 309 311 311 309 310 310 312 313 312 313 310 313 313 313 309 310 310 311 311 312 312 310 311 310 309 310 309
301 301 302 302 302 303 304 304 305 305 306 306 306 310 310 309 310 310 310 311 308 308 304 305 302 306 308 310 309 310 310 311 312 315 314 314 311 313 309 309 312 309 310 314 315 312 314 314 313 311 311 311 311 310
301 301 301 302 303 303 303 304 302 304 305 307 307 309 309 310 309 310 312 310 308 309 305 305 304 304 304 306 308 307 307 308 309 312 312 312 312 313 313 315 313 309 309 311 313 311 312 314 313 312 312 311 311 310
300 300 301 302 302 303 303 303 301 303 304 309 308 308 310 311 310 311 306 305 307 307 304 304 307 304 303 305 304 305 305 306 308 309 310 311 311 311 306 316 312 311 311 310 312 312 315 314 314 311 312 311 312 311
300 300 301 302 302 303 304 303 302 302 305 309 309 309 310 311 310 309 309 308 306 303 303 304 305 306 302 305 307 301 305 305 307 310 306 309 308 307 308 315 312 312 312 311 311 312 313 312 311 312 311 311 313 312
300 301 302 302 303 303 303 301 301 303 309 309 309 309 311 310 307 307 309 306 304 300 301 301 308 307 302 303 305 305 305 307 304 308 306 308 309 312 313 311 311 310 311 311 311 311 312 312 312 312 311 311 311 311
301 302 302 302 303 302 301 299 305 308 309 309 308 303 313 303 306 303 301 296 296 295 296 303 305 307 304 304 303 306 303 306 310 307 306 311 313 311 310 307 308 308 309 309 310 311 310 311 311 311 311 309 308 308
302 302 302 302 301 300 299 303 307 307 308 304 296 297 301 302 302 298 298 301 298 299 298 303 305 306 304 306 306 304 306 305 310 309 310 310 311 311 311 311 308 308 308 309 310 311 310 310 309 308 308 307 307 307
302 302 302 301 300 300 303 307 308 306 302 301 299 299 300 296 298 302 303 300 302 304 300 306 307 307 306 304 306 304 310 306 313 305 310 313 312 310 309 310 311 311 310 311 310 309 307 307 307 307 307 307 307 308
302 302 301 300 300 303 306 305 304 302 301 301 297 296 298 297 303 304 303 303 304 302 301 306 308 306 304 303 304 305 307 307 304 308 310 308 308 305 308 309 309 308 308 307 307 307 307 306 307 306 305 304 303 299
302 301 300 301 301 306 305 304 301 302 301 299 300 301 302 300 299 303 299 298 300 301 305 309 305 307 304 305 303 307 305 304 309 311 309 305 304 304 302 301 303 305 305 304 304 304 304 302 298 299 299 299 299 298
301 300 300 301 305 304 302 302 301 300 296 299 297 300 299 300 299 301 300 301 300 304 308 305 304 304 304 304 304 304 305 309 308 308 305 303 302 303 301 300 299 300 299 297 297 297 296 296 296 296 298 299 299 299
299 300 303 304 302 302 302 302 300 298 294 298 298 297 299 300 300 301 301 301 302 306 304 304 304 306 306 306 306 307 308 309 306 303 302 299 300 300 297 296 296 296 296 296 296 296 296 296 296 296 297 297 298 298
300 304 304 302 302 301 301 299 297 296 296 288 299 298 299 297 299 299 300 302 304 306 304 303 307 307 303 306 307 304 306 303 302 302 299 297 296 295 295 295 296 296 296 295 295 296 296 297 296 296 294 296 297 297
303 303 302 302 301 300 297 295 295 297 297 297 299 297 296 298 299 299 301 302 300 299 300 304 301 304 306 306 304 302 301 299 299 298 297 296 296 296 296 296 295 295 294 294 295 295 296 296 294 294 296 296 296 296
302 301 301 301 300 297 293 293 289 296 296 296 295 292 295 295 296 299 301 300 299 299 299 300 304 305 305 301 303 303 303 301 300 298 296 296 296 296 295 295 294 294 294 295 295 295 296 297 296 296 295 295 294 294
301 300 299 299 299 288 292 294 291 294 296 295 292 292 293 295 294 296 298 299 298 298 300 302 302 302 302 301 301 301 300 299 299 299 298 296 295 296 295 295 294 295 294 295 296 296 295 294 294 294 295 294 293 293
299 296 298 297 292 291 291 292 293 293 294 296 295 295 294 293 296 297 298 297 299 298 300 297 296 298 297 297 297 298 297 298 298 298 298 296 294 295 294 294 295 295 293 293 292 293 293 292 293 293 293 293 293 292
296 297 295 291 282 281 286 287 293 292 295 295 296 295 297 297 298 298 295 298 298 297 295 295 296 297 297 296 295 295 296 296 296 297 296 295 294 294 293 293 293 291 291 291 292 291 291 292 292 291 290 290 289 289
297 296 288 283 285 286 291 286 294 295 296 297 293 296 297 296 296 295 297 294 295 293 293 294 294 293 294 293 294 293 295 294 294 293 293 292 291 292 291 292 292 291 289 289 291 290 289 289 289 288 288 288 287 287
294 283 281 278 280 288 286 288 291 294 295 294 293 289 294 296 295 295 295 294 290 290 291 292 293 293 292 290 289 289 289 291 290 289 291 290 290 288 289 289 289 290 289 288 288 287 287 287 287 287 287 287 287 287
290 285 282 285 278 281 285 293 293 294 290 284 284 286 291 291 287 291 295 293 289 288 287 288 288 289 289 287 287 286 289 290 288 287 287 290 287 287 287 286 286 286 286 286 286 286 286 286 286 286 286 286 287 288
287 282 282 278 283 282 287 290 291 294 295 294 291 292 292 295 295 295 292 290 290 289 288 286 287 288 286 286 287 285 286 288 289 286 286 288 288 287 287 287 286 285 285 285 285 285 285 286 286 285 285 285 285 286
284 282 278 274 278 280 285 287 289 286 292 293 293 293 293 293 293 290 288 287 288 287 286 286 286 287 286 285 286 286 286 287 287 286 285 285 286 286 286 285 284 284 284 283 283 283 283 283 283 283 283 283 284 284
278 276 284 282 285 285 283 280 281 284 287 286 291 291 289 287 289 287 286 284 285 285 285 285 285 286 285 285 285 285 285 285 285 284 283 283 282 282 283 283 283 282 282 283 283 283 282 282 282 283 283 282 282 282
287 280 283 281 281 281 282 284 286 287 286 288 287 286 285 285 284 285 284 284 285 284 284 283 283 284 284 283 282 282 284 284 283 284 284 283 281 282 281 281 282 282 282 282 282 282 282 283 283 282 281 281 281 280
282 278 280 280 282 284 285 285 287 285 285 285 284 285 284 283 281 282 283 283 282 281 282 283 283 284 282 282 281 281 281 281 281 281 280 280 279 280 280 281 281 281 281 281 281 281 281 281 281 280 280 280 280 280
280 282 281 282 283 285 286 287 288 287 286 285 284 284 283 283 282 280 280 281 282 282 282 282 281 281 281 281 282 281 281 280 280 279 280 280 280 280 280 280 281 281 281 281 281 281 281 280 280 279 279 279 279 279
284 285 284 282 285 285 286 287 288 289 288 287 286 285 285 284 282 281 280 280 280 279 282 281 281 280 280 281 281 281 280 279 279 279 279 279 280 280 280 281 281 280 280 281 281 280 280 279 279 279 279 279 279 278
285 284 285 285 286 286 285 284 282 283 282 282 282 283 283 283 281 280 280 280 280 280 280 280 280 280 280 280 280 280 279 279 279 279 279 279 280 280 280 280 280 281 281 279 279 278 278 278 278 278 278 278 278 278

GFSWCAN_925_thetae_327.txt.gz
Theta_e
300 300 300 300 301 301 302 302 302 302 302 303 303 304 304 304 303 306 306 306 308 312 312 313 314 315 316 314 316 310 311 308 304 311 313 310 310 311 311 309 308 310 311 311 308 313 315 307 308 315 314 312 314 310
300 300 300 301 301 301 301 302 302 302 302 302 303 303 304 304 303 304 306 306 306 309 311 310 312 312 312 314 314 310 313 309 310 311 309 309 310 306 312 313 306 313 312 314 312 314 310 307 312 310 309 312 314 312
300 301 301 301 301 301 301 301 302 302 302 302 302 302 303 303 303 304 305 305 308 308 309 309 310 311 312 312 312 316 313 308 307 306 307 309 311 310 311 313 310 306 305 310 311 309 308 308 309 307 308 311 313 310
300 300 301 301 301 301 301 301 302 302 302 302 302 302 302 302 303 303 305 305 306 307 309 309 308 309 311 312 311 309 310 307 308 307 308 308 312 308 313 312 313 309 308 308 309 309 309 309 307 310 308 307 309 309
299 300 300 300 301 301 301 301 301 302 302 302 302 302 303 303 303 303 304 305 306 307 304 306 302 307 309 309 310 310 308 309 310 312 311 312 307 309 305 307 311 306 308 313 314 309 313 314 310 310 308 308 309 308
299 299 299 300 300 300 301 301 301 302 302 302 302 302 302 303 302 303 304 305 306 308 306 307 305 301 306 307 309 311 311 310 310 311 310 309 307 309 310 313 312 308 305 311 313 309 311 312 309 309 309 309 309 308
299 299 299 299 300 300 300 300 301 301 302 302 302 302 302 302 303 304 305 306 307 308 306 305 306 302 303 306 307 309 307 308 309 311 311 310 309 309 304 315 311 308 309 308 307 308 310 310 312 310 309 310 310 307
298 299 299 299 300 300 300 300 301 301 301 302 302 302 302 302 303 303 304 304 305 308 306 304 305 303 302 304 308 306 310 308 308 310 305 308 307 307 309 312 313 308 307 307 307 308 312 310 309 311 309 308 309 309
299 299 299 299 299 300 300 300 301 301 301 302 302 301 303 303 303 303 304 305 305 304 305 302 307 308 299 303 304 305 308 309 307 311 311 307 309 312 311 314 311 308 310 309 307 307 308 310 310 310 309 309 310 309
299 299 299 299 299 299 299 300 300 301 301 301 301 303 301 302 303 304 306 299 298 295 297 303 303 305 300 301 303 307 305 308 308 308 305 311 312 309 308 309 312 310 310 309 311 308 308 310 309 309 309 310 311 311
299 299 299 299 299 299 299 300 301 301 301 300 297 297 300 303 304 300 300 301 299 299 298 303 306 304 299 305 306 306 306 304 309 307 311 310 310 312 311 310 307 306 309 310 312 312 310 311 311 310 309 308 309 308
299 299 300 300 300 300 300 301 301 301 299 298 297 298 298 297 298 300 301 300 302 303 299 306 305 304 303 304 305 304 306 304 310 304 309 311 311 311 311 310 310 307 306 306 307 308 308 308 310 310 311 310 307 308
300 300 300 300 300 301 301 301 301 301 299 299 298 296 297 299 302 302 303 302 303 301 299 306 307 306 304 305 305 305 308 308 305 308 310 307 310 309 309 309 309 306 308 309 307 307 308 308 307 305 305 306 307 306
300 301 300 300 301 301 301 301 301 302 301 296 298 300 302 301 301 300 297 297 298 297 302 306 306 307 304 305 303 308 307 305 309 311 308 309 304 303 303 305 305 303 306 308 308 308 307 306 304 304 306 306 305 302
301 301 301 301 300 301 301 301 301 300 295 297 299 303 301 300 300 300 298 300 299 301 306 306 305 304 304 305 304 304 305 308 306 306 303 301 300 299 300 300 301 304 304 304 304 304 302 301 301 297 300 301 301 298
300 300 301 301 301 300 300 299 299 296 293 297 298 300 299 299 300 301 300 300 300 305 305 305 304 306 307 306 305 307 307 305 303 301 300 298 298 298 297 298 298 298 299 299 299 299 297 297 297 294 295 296 296 297
301 300 300 301 301 300 299 295 294 294 296 299 299 297 298 299 300 300 299 301 303 306 305 304 308 309 303 306 306 302 306 303 301 299 296 296 296 294 293 293 294 295 295 295 295 295 294 295 295 296 295 294 296 296
299 300 299 300 298 297 293 292 294 296 297 297 299 297 297 299 300 301 302 302 301 300 301 304 302 304 305 305 304 302 300 297 295 295 295 294 293 293 294 294 294 294 294 294 294 293 294 294 294 293 293 293 293 293
299 300 299 298 298 294 293 291 291 295 296 296 295 294 296 296 296 298 299 299 299 299 299 300 304 305 304 302 302 299 298 297 296 295 295 294 295 294 294 294 294 294 294 294 294 293 293 293 293 293 292 293 292 292
298 297 298 297 295 291 291 291 293 295 296 295 294 295 296 296 295 296 297 297 297 298 301 302 302 301 302 301 299 298 297 297 297 297 297 296 296 295 295 296 295 295 294 294 294 294 293 293 292 292 292 292 291 290
298 294 294 294 291 289 290 291 293 292 295 296 295 294 297 295 296 297 297 297 297 295 299 298 297 298 298 300 300 300 299 299 299 298 297 297 296 295 295 295 294 294 294 293 293 293 291 291 290 290 289 289 289 290
295 293 292 291 284 284 288 288 291 292 295 295 294 293 293 295 297 297 295 295 295 295 294 295 296 297 296 295 295 295 297 297 297 296 296 296 295 295 294 293 293 292 291 291 291 290 288 288 288 288 288 287 288 288
294 292 285 282 287 287 290 287 291 292 292 294 291 293 290 292 296 292 294 295 293 291 291 293 293 292 292 292 292 291 293 294 293 292 292 291 290 290 290 290 290 290 289 287 287 288 287 288 287 287 287 287 287 286
291 280 282 281 284 285 286 293 292 289 282 284 284 290 289 293 290 290 294 293 291 290 290 291 293 295 293 291 289 289 289 291 290 289 289 289 288 286 286 286 286 286 286 286 286 286 286 286 286 286 286 286 286 286
288 283 282 286 274 285 292 293 293 289 290 286 290 292 290 286 287 292 293 291 290 289 288 289 290 290 290 289 288 287 287 289 289 287 286 286 286 285 284 284 284 285 286 286 285 285 285 285 285 284 284 284 284 284
285 280 282 286 285 285 290 292 293 291 290 293 292 292 293 294 293 291 290 287 288 287 286 286 289 288 286 284 286 285 284 287 287 285 283 286 287 286 285 285 284 283 283 284 284 283 283 283 283 283 282 282 283 282
284 280 279 276 279 281 285 289 288 289 291 292 292 293 292 292 290 289 287 285 286 285 284 285 286 286 285 284 283 282 283 285 283 281 282 284 285 285 285 284 283 282 283 283 283 282 282 282 282 282 282 282 282 281
278 277 285 283 283 283 282 287 290 290 290 289 290 288 286 288 287 285 285 284 284 283 283 282 282 282 282 282 282 281 281 281 281 282 281 281 281 281 282 282 282 282 282 282 282 282 282 282 282 282 282 281 281 280
284 279 280 277 277 279 282 287 289 288 287 288 284 284 283 282 281 282 282 283 284 283 283 282 281 281 280 281 281 281 282 283 283 281 281 280 279 279 280 280 280 281 281 281 281 282 282 282 282 282 281 280 280 280
281 276 277 275 278 282 284 285 285 285 283 280 281 282 281 281 280 281 282 282 282 282 282 282 282 281 281 280 279 278 279 280 280 279 278 278 278 279 280 280 280 280 280 280 280 280 281 281 281 280 280 279 279 279
277 278 277 279 281 284 285 284 284 283 281 281 282 282 282 281 281 280 280 281 282 281 281 280 280 281 281 281 280 278 277 279 279 279 279 279 279 280 280 280 280 280 280 280 280 280 280 279 279 279 279 278 278 278
279 280 281 280 282 283 284 283 284 285 284 284 284 283 283 282 282 281 279 280 281 280 282 280 280 279 279 279 278 278 278 278 278 278 279 279 280 280 280 280 279 280 280 280 279 278 278 278 278 278 278 277 277 278
278 280 282 281 279 281 283 281 282 282 282 281 282 284 283 283 282 281 279 279 279 279 279 279 279 279 279 279 278 278 278 278 277 278 279 279 279 280 280 280 280 279 278 278 278 277 277 277 277 277 277 277 277 277